GEFSMW_con_prob3kmehi_138.txt.gz
EHI
31 34 38 42 43 38 30 24 20 17 12 8 6 4 3 2 1 0 0 0 0 0 1 2 3 2 3 2 1 0 0 0 0 0 0 0 0 0 0 0 0 0 0
36 38 39 42 42 38 31 27 25 21 17 12 8 4 3 2 1 0 0 0 0 0 1 2 2 3 3 3 1 1 0 0 0 0 0 0 0 0 0 0 0 0 0
41 42 41 41 40 35 30 28 27 24 19 15 12 8 6 4 1 0 0 0 0 0 0 1 2 3 3 3 2 2 1 0 0 0 0 0 0 0 0 0 0 0 0
44 43 40 37 35 31 26 24 22 20 18 16 15 14 11 6 2 1 0 0 0 0 0 0 2 3 3 3 3 2 2 1 0 0 0 0 0 0 0 0 0 0 0
44 41 36 32 30 26 23 22 20 17 16 15 15 14 11 6 2 1 1 1 0 0 0 0 1 3 3 3 3 3 2 1 0 0 0 0 0 0 0 0 0 0 0
40 37 33 30 28 26 25 25 23 18 15 13 12 10 8 5 2 1 1 1 0 0 0 0 1 2 2 3 3 3 3 1 0 0 0 0 0 0 0 0 0 0 0
37 34 33 32 29 28 28 26 23 18 14 11 9 8 7 5 2 1 0 0 0 0 0 0 0 1 1 1 2 2 2 1 0 0 0 0 0 0 0 0 0 0 0
37 34 31 30 29 27 26 24 20 15 11 9 6 6 6 5 2 0 0 0 0 0 0 0 0 0 0 0 1 1 1 1 0 0 0 0 0 0 0 0 0 0 0
33 30 26 24 24 23 21 19 16 12 9 7 6 5 4 3 2 0 0 0 0 0 0 0 0 0 0 0 0 0 0 0 0 0 0 0 0 0 0 0 0 0 0
26 23 20 18 17 16 15 13 12 10 8 7 6 5 3 2 1 0 0 0 0 0 0 0 0 0 0 0 0 0 0 0 0 0 0 0 0 0 0 0 0 0 0
20 19 17 14 12 12 11 9 8 8 7 6 5 4 3 2 1 0 0 0 0 0 0 0 0 0 0 0 0 0 0 0 0 0 0 0 0 0 0 0 0 0 0
17 17 16 13 12 12 10 8 7 6 5 4 4 3 2 2 1 0 0 0 0 0 0 0 0 0 0 0 0 0 0 0 0 0 0 0 0 0 0 0 0 0 0
17 17 15 12 12 12 10 7 5 5 4 3 3 2 2 2 1 0 0 0 0 0 0 0 0 0 0 0 0 0 0 0 0 0 0 0 0 0 0 0 0 0 0
19 18 15 12 11 11 8 3 2 2 2 2 2 1 1 1 0 0 0 0 0 0 0 0 0 0 0 0 0 0 0 0 0 0 0 0 0 0 0 0 0 0 0
18 17 14 11 10 10 6 2 0 1 1 1 1 0 0 0 0 0 0 0 0 0 0 0 0 0 0 0 0 0 0 0 0 0 0 0 0 0 0 0 0 0 0
14 13 10 7 7 8 5 2 0 0 0 0 0 0 0 0 0 0 0 0 0 0 0 0 0 0 0 0 0 0 0 0 0 0 0 0 0 0 0 0 0 0 0
11 8 5 3 2 3 3 2 0 0 0 0 0 0 0 0 0 0 0 0 0 0 0 0 0 0 0 0 0 0 0 0 0 0 0 0 0 0 0 0 0 0 0
8 5 2 1 1 1 2 1 0 0 0 0 0 0 0 0 0 0 0 0 0 0 0 0 0 0 0 0 0 0 0 0 0 0 0 0 0 0 0 0 0 0 0
5 3 2 2 2 1 0 0 1 1 0 0 0 0 0 0 0 0 0 0 0 0 0 0 0 0 0 0 0 0 0 0 0 0 0 0 0 0 0 0 0 0 0
3 2 2 3 3 1 1 2 2 2 0 0 0 0 0 1 1 0 0 0 0 0 0 0 0 0 0 0 0 0 0 0 0 0 0 0 0 0 0 0 0 0 0
2 3 3 4 3 3 3 4 4 2 0 0 0 0 0 0 1 1 0 0 0 0 0 0 0 0 0 0 0 0 0 0 0 0 0 0 0 0 0 0 0 0 0
4 3 4 4 4 4 5 5 3 1 0 0 0 0 0 0 0 0 0 0 0 0 0 0 0 0 0 0 0 0 0 0 0 0 0 0 0 0 0 0 0 0 0
4 3 3 4 4 4 3 3 1 0 0 0 0 0 0 0 0 0 0 0 0 0 0 0 0 0 0 0 0 0 0 0 0 0 0 0 0 0 0 0 0 0 0
3 3 3 3 2 2 1 1 0 0 0 0 0 0 0 0 0 0 1 0 0 0 0 0 0 0 0 0 0 0 0 0 0 0 0 0 0 0 0 0 0 0 0
3 3 3 3 2 0 0 0 0 0 0 0 0 0 0 0 0 0 0 0 0 0 0 0 0 0 0 0 0 0 0 0 0 0 0 0 0 0 0 0 0 0 0
3 3 3 3 2 1 0 0 0 0 0 0 0 0 0 0 0 0 0 0 0 0 0 0 0 0 0 0 0 0 0 0 0 0 0 0 0 0 0 0 0 0 0

GEFSMW_con_prob3kmehi_144.txt.gz
EHI
45 45 42 38 37 35 35 36 39 41 33 22 16 14 12 10 7 5 5 6 5 4 4 2 2 4 4 2 1 1 0 0 0 0 0 0 0 0 1 2 2 1 0
52 51 49 46 43 41 41 40 41 42 36 25 18 15 12 9 7 5 5 5 4 3 4 3 3 5 4 3 2 2 1 1 1 1 1 0 0 0 0 1 1 1 1
56 57 56 51 47 46 46 44 43 42 35 25 18 15 14 10 6 4 4 3 2 2 3 3 4 4 4 3 3 3 3 3 4 4 2 1 0 0 0 0 0 1 3
50 53 53 48 43 43 44 44 43 41 34 25 19 17 15 10 6 4 4 4 3 2 3 4 4 3 2 2 3 4 4 4 4 5 4 3 1 0 0 0 1 2 3
41 44 46 44 39 37 39 40 41 39 33 26 21 18 13 8 5 4 4 5 5 3 3 5 6 5 2 1 2 3 3 4 5 5 6 5 4 2 1 0 1 1 1
39 39 42 43 39 36 35 35 37 38 34 29 24 18 11 7 5 4 5 5 4 4 5 5 6 7 5 2 2 2 4 5 5 5 6 6 5 4 3 1 0 1 1
40 40 42 44 42 39 35 32 35 37 35 30 25 19 12 8 6 5 7 6 4 5 6 5 6 7 6 4 2 3 4 4 3 4 6 6 6 6 4 2 1 1 2
40 40 42 44 43 40 36 33 36 38 35 30 26 21 14 7 5 6 8 8 5 5 5 4 3 4 4 3 3 3 3 3 2 2 4 6 7 7 5 3 2 1 1
39 39 41 42 41 39 36 34 36 35 33 30 28 24 18 11 6 7 8 7 3 3 2 1 1 2 2 2 4 4 4 4 3 3 4 5 8 9 8 6 4 3 1
37 39 39 38 38 37 33 31 30 29 28 27 25 23 19 14 10 8 7 5 2 1 1 0 1 3 4 4 5 5 4 4 5 4 3 4 6 10 10 7 6 5 3
34 38 39 38 38 35 30 25 23 23 22 19 18 16 13 11 9 8 5 4 2 1 0 0 1 3 6 6 4 3 2 2 3 2 2 2 4 6 7 5 5 4 4
35 39 44 45 41 35 28 23 21 20 18 16 14 12 10 9 8 6 6 5 4 2 0 0 1 3 6 7 5 3 2 1 1 0 0 0 2 4 4 3 1 1 2
44 47 51 50 45 37 30 25 21 19 18 16 14 11 10 9 7 6 6 7 7 4 1 1 3 4 5 7 8 6 5 4 2 2 1 1 3 4 4 3 1 1 1
53 55 57 53 46 39 32 28 23 19 17 14 12 9 7 6 5 4 5 6 6 5 4 4 4 4 5 7 8 8 7 6 4 4 3 2 3 3 3 3 2 2 2
57 59 59 54 48 40 34 31 27 20 15 11 7 5 4 2 2 2 3 4 4 5 6 6 4 3 4 5 5 6 6 5 4 4 3 2 1 1 1 1 2 2 2
61 61 60 55 49 42 36 33 28 20 14 10 6 4 4 3 2 2 3 3 3 4 6 6 5 4 4 3 2 2 4 4 3 2 1 1 0 0 0 0 1 1 1
63 64 63 57 49 43 37 32 26 19 15 12 9 8 8 7 6 4 4 3 4 5 6 6 6 6 5 3 1 0 1 2 2 2 1 0 0 0 0 0 0 0 0
63 65 66 60 49 41 36 29 23 19 15 13 11 10 10 10 8 7 6 7 7 8 8 8 8 8 6 2 0 0 0 1 2 2 1 0 0 0 0 0 0 0 0
66 67 66 61 51 42 35 29 24 19 16 13 12 12 11 10 9 9 10 10 11 11 10 10 9 8 5 1 0 0 1 2 2 1 0 0 0 0 0 0 0 0 0
70 68 64 59 53 44 37 30 25 19 15 12 11 11 11 10 10 11 11 12 12 11 9 8 7 5 3 1 0 1 2 2 1 0 0 0 0 0 0 0 0 0 0
68 65 60 55 49 43 37 30 23 16 12 10 9 9 9 9 9 9 9 10 11 9 7 5 4 3 3 1 0 1 2 2 1 0 0 0 0 0 0 0 0 0 0
59 59 54 48 42 38 33 26 19 12 8 6 6 7 7 5 5 6 6 8 8 7 5 4 4 3 3 2 0 0 1 1 1 1 0 0 0 0 0 0 0 0 0
49 49 45 38 32 27 22 18 15 10 6 5 5 6 5 4 4 5 6 6 5 4 4 4 3 3 3 1 0 0 0 0 1 1 0 0 0 0 0 0 0 0 0
38 37 33 28 22 17 13 12 11 9 6 5 4 5 4 3 4 5 5 4 4 3 3 3 3 3 2 1 0 0 0 0 0 0 0 0 0 0 0 0 0 0 0
27 26 23 19 15 11 9 10 9 7 6 5 4 3 2 2 2 2 2 2 2 2 2 2 2 2 2 1 0 0 0 0 0 0 0 0 0 0 0 0 0 0 0
22 21 17 14 12 9 8 9 8 7 6 6 4 2 0 0 1 0 0 0 1 1 1 1 1 1 1 0 0 0 0 0 0 0 0 0 0 0 0 0 0 0 0

GEFSMW_con_prob3kmehi_150.txt.gz
EHI
81 79 76 73 73 76 75 72 69 66 59 46 32 25 21 18 17 22 27 24 17 13 11 12 17 18 16 16 15 11 9 8 9 8 6 3 3 6 10 10 9 10 11
84 81 77 74 75 77 77 74 71 67 61 50 36 26 21 17 17 24 29 25 19 16 13 14 17 18 18 16 14 12 11 8 6 5 5 3 2 3 5 8 8 9 11
86 83 80 77 76 77 77 74 72 70 64 53 40 29 24 19 18 24 28 26 21 19 18 17 18 18 18 17 13 12 12 8 5 6 7 6 4 2 3 4 6 8 11
79 81 81 77 75 75 74 73 73 71 66 56 45 37 30 23 18 20 24 24 22 20 19 21 22 20 19 17 13 12 13 9 8 10 9 7 5 4 3 3 4 7 11
69 74 77 75 72 70 70 71 71 70 67 59 51 44 37 29 22 20 22 24 23 20 20 24 27 24 21 19 17 16 16 13 12 12 10 8 6 4 2 2 3 5 7
64 70 74 73 71 69 68 68 68 68 66 61 53 46 41 35 29 25 25 25 24 22 22 26 30 27 23 23 23 22 19 18 17 14 12 10 8 4 2 0 1 2 3
64 68 70 70 70 69 68 68 66 64 61 57 49 44 42 38 32 28 27 26 24 23 22 25 30 28 24 23 23 22 20 20 19 16 13 10 8 6 3 1 0 1 1
60 62 65 66 65 65 65 65 63 59 55 51 47 45 43 38 32 27 25 24 23 21 21 24 27 26 21 19 18 18 18 19 17 13 11 9 7 5 5 4 1 0 1
53 56 60 62 60 59 59 58 57 55 52 49 48 47 44 39 32 28 24 22 21 21 21 23 24 22 20 17 16 17 17 17 15 11 10 10 7 5 6 6 4 2 1
46 53 58 59 59 58 55 53 52 52 50 49 46 44 43 40 35 30 26 22 20 19 20 23 22 21 19 17 16 17 16 13 11 10 9 9 7 6 5 5 5 4 3
43 51 59 60 60 60 57 52 48 48 48 46 44 42 40 38 33 28 23 21 18 17 19 21 21 19 16 13 12 12 11 9 8 8 8 7 7 7 5 4 5 6 5
47 55 62 63 60 59 57 51 47 45 45 44 41 39 35 30 25 22 19 18 16 15 16 18 18 15 13 11 9 8 6 5 5 6 6 7 7 6 4 4 5 6 6
60 63 67 67 62 59 56 51 47 45 44 43 39 33 28 24 19 17 16 15 14 12 12 14 14 12 11 11 10 8 6 5 4 5 7 7 7 6 4 4 5 5 5
71 72 74 74 70 65 59 53 49 47 45 43 37 30 24 19 16 14 13 12 11 9 8 10 11 11 9 10 11 11 9 7 5 6 8 8 6 5 4 3 4 4 4
76 77 79 79 76 71 63 54 51 51 49 43 37 29 21 14 12 11 10 9 8 8 9 10 10 9 7 7 9 11 10 9 8 8 8 7 4 3 2 2 2 2 3
75 79 82 82 79 74 65 58 55 54 50 41 35 29 19 12 10 10 10 12 12 10 10 10 9 7 4 3 4 6 8 9 9 9 9 6 3 1 1 0 0 0 1
73 79 85 85 81 73 66 63 60 55 48 38 31 27 20 15 13 13 15 17 15 12 10 9 9 7 4 2 1 2 5 7 8 9 8 6 3 1 0 0 0 0 0
77 82 86 87 81 72 67 64 60 53 45 36 29 26 22 19 16 16 17 17 15 13 10 9 10 9 5 2 0 1 3 4 5 7 7 6 4 1 0 0 0 0 0
84 87 88 86 81 75 70 65 58 53 46 37 30 25 22 20 19 18 17 15 14 13 11 10 10 8 5 2 0 1 1 1 2 3 3 3 3 1 0 1 1 1 0
85 87 88 85 82 78 73 66 60 55 48 40 32 26 21 20 20 19 16 13 12 12 10 9 9 7 4 2 1 0 1 1 1 1 1 1 1 1 0 1 2 2 1
79 82 85 85 83 79 73 67 61 55 49 42 35 28 22 18 17 17 15 12 11 10 9 7 6 6 4 2 1 0 0 1 2 2 2 1 0 0 0 1 2 2 2
74 77 81 81 78 74 70 64 57 51 47 43 37 30 24 18 15 15 13 11 9 8 7 5 4 4 3 2 1 0 0 1 2 3 2 1 0 0 0 0 1 1 1
71 74 77 76 70 65 62 58 51 45 43 41 36 30 25 20 16 14 11 10 9 7 5 4 3 3 3 2 2 1 0 0 1 2 1 1 0 0 0 0 0 0 0
68 69 70 67 61 56 52 48 43 39 36 33 30 26 22 19 16 13 10 10 9 6 4 3 2 2 3 2 2 1 0 0 0 0 0 0 0 0 0 0 0 0 0
64 64 61 56 50 46 41 36 33 30 28 26 23 20 17 14 13 11 9 8 6 4 3 3 2 2 2 1 1 1 0 0 0 0 0 0 0 0 0 0 0 0 0
61 60 55 48 43 40 34 29 26 25 25 23 20 17 15 13 11 9 7 4 3 2 1 2 1 1 1 0 0 0 0 0 0 0 0 0 0 0 0 0 0 0 0

GEFSMW_con_prob3kmehi_156.txt.gz
EHI
52 59 67 68 63 56 50 46 40 32 24 18 13 11 11 11 7 3 1 2 2 2 2 3 3 3 3 2 1 0 0 0 0 0 0 0 0 0 0 0 0 0 0
56 61 67 69 66 61 55 48 41 34 26 18 11 8 8 8 6 3 2 2 2 1 1 2 3 3 3 2 1 0 0 0 0 0 0 0 0 0 0 0 0 0 0
62 63 66 68 67 64 59 53 45 36 28 19 11 7 5 4 4 3 3 3 2 1 1 1 2 3 4 2 0 0 0 0 0 0 0 0 0 0 0 0 0 0 0
63 63 63 64 64 63 61 57 51 40 29 21 15 10 7 4 2 2 3 3 3 3 2 1 2 4 4 2 0 0 0 0 0 0 0 0 0 0 0 0 0 0 0
59 60 60 59 61 62 61 59 54 44 33 24 18 13 10 6 3 3 4 4 4 4 3 2 2 3 2 1 0 0 0 0 0 0 0 0 0 0 0 0 0 0 0
55 55 55 56 58 60 63 61 55 47 37 28 21 16 12 8 6 5 6 5 4 4 4 2 1 1 1 0 0 0 0 0 0 0 0 0 0 0 0 0 0 0 0
52 52 52 54 57 61 64 63 56 47 39 32 25 19 13 10 8 7 6 5 6 6 5 3 1 0 0 0 0 0 0 0 0 0 0 0 0 0 0 0 0 0 0
53 52 51 53 57 61 62 59 52 44 39 34 28 21 15 11 9 6 5 4 5 6 5 3 2 0 0 0 0 0 0 0 0 0 0 0 0 0 0 0 0 0 0
52 52 51 51 54 56 55 52 47 42 38 34 28 23 16 11 8 6 4 4 4 4 4 3 2 1 0 0 0 0 0 0 0 0 0 0 0 0 0 0 0 0 0
50 50 51 50 49 50 50 47 43 39 34 30 25 21 16 10 7 6 5 4 3 3 3 3 3 2 1 0 0 0 0 0 0 0 0 0 0 0 0 0 0 0 0
48 50 49 48 49 50 49 44 39 35 29 25 22 19 14 10 7 6 5 4 3 2 2 2 2 2 1 0 0 0 0 0 0 0 0 0 0 0 0 0 0 0 0
47 48 48 48 50 52 50 44 39 34 27 21 19 16 12 8 6 5 4 2 1 1 1 1 1 1 0 0 0 0 0 0 0 0 0 0 0 0 0 0 0 0 0
48 49 51 52 53 53 50 46 41 34 26 20 16 12 7 4 3 2 2 1 0 0 0 0 0 0 0 0 0 0 0 0 0 0 0 0 0 0 0 0 0 0 0
53 54 56 57 57 54 51 46 39 32 26 21 15 8 4 1 1 1 1 1 0 0 0 0 0 0 0 0 0 0 0 0 0 0 0 0 0 0 0 0 0 0 0
57 57 59 60 60 58 53 45 37 31 27 22 14 7 4 3 2 1 2 1 1 1 0 0 0 0 0 0 0 0 0 0 0 0 0 0 0 0 0 0 0 0 0
61 60 61 62 63 61 56 46 38 33 29 24 16 8 6 5 3 2 1 1 0 0 0 0 0 0 0 0 0 0 0 0 0 0 0 0 0 0 0 0 0 0 0
67 66 65 66 66 62 57 48 40 35 31 26 18 12 8 7 5 3 1 1 0 0 0 1 0 0 0 0 0 0 0 0 0 0 0 0 0 0 0 0 0 0 0
70 70 69 71 68 63 57 49 42 35 30 25 18 11 8 7 6 5 3 1 0 0 0 0 0 0 0 0 0 0 0 0 0 0 0 0 0 0 0 0 0 0 0
71 72 73 73 70 65 61 55 46 36 27 20 14 9 7 6 6 5 3 1 0 0 0 0 0 0 0 0 0 0 0 0 0 0 0 0 0 0 0 0 0 0 0
73 73 74 74 72 68 65 60 49 35 23 16 11 8 6 6 5 3 1 0 0 0 0 0 0 0 0 0 0 0 0 0 0 0 0 0 0 0 0 0 0 0 0
72 73 74 73 70 66 62 56 44 29 19 14 10 7 6 5 3 1 0 0 0 0 0 0 0 0 0 0 0 0 0 0 0 0 0 0 0 0 0 0 0 0 0
69 69 68 66 61 57 53 46 35 25 17 12 7 5 4 3 1 0 0 0 0 0 0 0 0 0 0 0 0 0 0 0 0 0 0 0 0 0 0 0 0 0 0
62 61 59 56 51 46 43 38 29 21 15 9 5 3 3 2 1 0 0 0 0 0 0 0 0 0 0 0 0 0 0 0 0 0 0 0 0 0 0 0 0 0 0
51 50 50 47 42 37 34 30 22 16 11 7 4 3 3 2 1 0 0 0 0 0 0 0 0 0 0 0 0 0 0 0 0 0 0 0 0 0 0 0 0 0 0
36 37 40 39 33 28 25 21 16 12 10 8 6 4 3 1 0 0 0 0 0 0 0 0 0 0 0 0 0 0 0 0 0 0 0 0 0 0 0 0 0 0 0
25 27 30 32 29 23 19 17 14 11 9 9 7 5 3 1 0 1 1 1 0 0 0 0 0 0 0 0 0 0 0 0 0 0 0 0 0 0 0 0 0 0 0

GEFSMW_con_prob3kmehi_162.txt.gz
EHI
23 24 24 23 22 20 17 15 13 9 5 4 4 3 2 1 1 0 0 0 0 0 0 0 0 0 0 0 0 0 0 0 0 0 0 0 0 0 0 0 0 0 0
28 28 28 28 26 23 20 17 14 10 6 5 4 2 1 1 1 0 0 0 0 0 0 0 0 0 0 0 0 0 0 0 0 0 0 0 0 0 0 0 0 0 0
33 33 33 32 29 26 23 20 16 11 7 5 4 2 1 1 1 1 1 0 0 0 0 0 0 0 0 0 0 0 0 0 0 0 0 0 0 0 0 0 0 0 0
35 36 35 32 28 25 24 21 17 12 8 4 3 3 2 2 2 2 1 0 0 0 0 1 1 1 1 0 0 0 0 0 0 0 0 0 0 0 0 0 0 0 0
34 34 34 31 26 24 24 21 16 11 7 5 4 3 2 1 1 1 1 0 0 0 0 1 2 2 2 1 0 0 0 0 0 0 0 0 0 0 0 0 0 0 0
29 29 30 29 26 25 25 22 17 11 7 5 3 3 3 1 0 0 0 0 0 0 0 0 1 1 1 1 0 0 0 0 0 0 0 0 0 0 0 0 0 0 0
23 24 27 28 28 28 27 25 20 14 9 6 3 2 2 1 0 0 0 1 1 1 0 0 0 0 0 0 0 0 0 0 0 0 0 0 0 0 0 0 0 0 0
19 21 24 27 29 30 30 26 21 17 13 9 6 3 2 0 0 0 1 2 2 1 0 0 0 0 0 0 0 0 0 0 0 0 0 0 0 0 0 0 0 0 0
19 19 21 24 28 31 30 26 21 17 14 12 9 6 2 0 0 0 1 2 1 1 0 0 0 0 0 0 0 0 0 0 0 0 0 0 0 0 0 0 0 0 0
21 20 20 22 25 28 27 24 20 16 13 11 10 7 2 0 0 0 1 1 0 0 0 0 0 0 0 0 0 0 0 0 0 0 0 0 0 0 0 0 0 0 0
22 21 21 22 23 25 25 23 18 13 10 9 8 5 2 0 0 0 0 0 0 0 0 0 0 0 0 0 0 0 0 0 0 0 0 0 0 0 0 0 0 0 0
21 21 23 24 24 25 25 23 19 12 9 8 7 4 1 0 0 0 0 0 0 0 0 0 1 0 0 0 0 0 0 0 0 0 0 0 0 0 0 0 0 0 0
22 25 27 26 25 25 26 24 19 13 10 9 7 3 1 0 0 0 0 0 0 0 0 0 0 0 0 0 0 0 0 0 0 0 0 0 0 0 0 0 0 0 0
25 27 30 28 24 23 24 23 19 15 13 11 7 2 0 0 0 0 0 1 0 0 0 0 0 0 0 0 0 0 0 0 0 0 0 0 0 0 0 0 0 0 0
25 27 31 30 25 23 24 25 23 19 16 13 8 3 2 1 0 0 0 0 0 0 0 0 0 0 0 0 0 0 0 0 0 0 0 0 0 0 0 0 0 0 0
28 30 34 36 33 30 31 30 27 22 18 13 9 6 5 3 1 1 1 1 0 0 0 0 0 0 0 0 0 0 0 0 0 0 0 0 0 0 0 0 0 0 0
35 35 37 40 39 39 39 35 28 23 19 14 11 8 6 4 2 2 2 1 0 0 0 0 0 0 0 0 0 0 0 0 0 0 0 0 0 0 0 0 0 0 0
38 36 36 38 38 40 41 36 29 24 19 15 11 7 5 3 2 1 1 1 0 0 0 0 0 0 0 0 0 0 0 0 0 0 0 0 0 0 0 0 0 0 0
34 33 36 38 38 40 42 38 30 22 18 14 9 4 3 3 3 2 1 0 0 0 0 0 0 0 0 0 0 0 0 0 0 0 0 0 0 0 0 0 0 0 0
30 32 37 41 40 39 42 38 29 20 15 12 7 3 3 4 4 3 2 1 0 0 0 0 0 0 0 0 0 0 0 0 0 0 0 0 0 0 0 0 0 0 0
32 33 37 40 36 35 37 34 25 18 14 11 7 4 3 4 3 3 2 1 0 0 0 0 0 0 0 0 0 0 0 0 0 0 0 0 0 0 0 0 0 0 0
36 34 35 36 31 30 32 28 22 17 14 11 8 5 3 3 3 3 1 0 0 0 0 0 0 0 0 0 0 0 0 0 0 0 0 0 0 0 0 0 0 0 0
35 31 29 29 26 25 25 23 18 15 14 12 8 5 4 3 3 2 1 0 0 0 0 0 0 0 0 0 0 0 0 0 0 0 0 0 0 0 0 0 0 0 0
27 23 20 20 20 20 19 17 13 11 12 11 8 5 4 4 3 1 0 0 0 0 0 0 0 0 0 0 0 0 0 0 0 0 0 0 0 0 0 0 0 0 0
17 14 11 12 13 15 14 11 8 7 9 9 7 5 4 4 2 1 0 0 0 0 0 0 0 0 0 0 0 0 0 0 0 0 0 0 0 0 0 0 0 0 0
12 10 9 9 9 11 11 9 6 5 6 7 6 6 5 4 2 0 0 0 0 0 0 0 0 0 0 0 0 0 0 0 0 0 0 0 0 0 0 0 0 0 0

GEFSMW_con_prob3kmehi_168.txt.gz
EHI
23 23 25 27 31 35 37 37 35 33 30 24 17 11 6 2 1 2 2 1 1 1 1 1 2 3 3 1 0 0 0 0 0 0 0 0 0 1 1 1 1 0 0
30 32 34 33 35 39 39 37 37 35 30 24 17 12 7 3 2 3 3 2 1 1 1 1 2 2 3 2 1 0 0 0 0 0 0 0 1 1 1 1 1 0 0
36 41 42 38 35 37 38 37 41 39 33 24 17 13 9 5 3 4 4 2 2 2 1 1 1 1 2 2 1 0 0 0 1 1 1 1 1 1 1 1 1 1 0
36 42 44 38 31 30 33 39 43 43 37 29 21 15 11 7 5 4 4 3 2 2 2 1 1 1 2 2 1 1 1 2 2 3 3 3 2 1 1 0 0 1 1
34 39 42 35 25 23 29 37 43 44 41 35 29 22 14 9 7 5 4 4 3 3 2 1 2 2 3 3 3 3 3 4 4 3 3 3 2 3 2 1 0 0 0
32 36 39 35 26 22 27 35 42 43 40 36 32 26 19 14 12 9 6 6 5 5 3 2 3 4 4 4 4 5 6 6 5 3 2 2 2 3 3 2 0 0 0
33 36 39 39 34 30 31 37 42 42 36 31 28 26 22 19 17 12 9 8 6 5 4 3 4 5 4 4 5 6 7 7 6 4 2 2 2 3 3 2 1 0 0
37 38 39 40 40 37 36 40 43 41 34 28 25 25 24 22 18 14 11 8 6 5 4 3 3 4 5 6 7 6 7 8 7 5 3 2 2 3 3 3 3 1 0
42 40 37 36 36 35 35 39 43 40 34 28 25 26 27 25 21 17 12 8 7 5 5 4 4 4 6 9 8 7 8 10 9 7 5 3 3 4 5 5 4 1 0
41 41 38 35 33 31 33 39 41 40 36 31 28 28 29 28 23 18 14 10 7 5 4 4 4 5 8 10 9 8 8 9 10 9 6 4 4 4 5 5 4 2 2
39 40 42 39 34 33 36 40 40 38 36 33 30 30 30 27 22 18 16 13 8 6 5 5 4 5 6 8 8 6 6 7 7 6 5 5 4 3 3 3 3 3 3
43 44 46 44 40 39 41 42 39 36 34 33 34 34 31 24 20 19 19 17 12 9 8 6 4 4 4 5 5 5 4 4 4 4 4 5 4 3 2 1 1 2 2
53 54 55 53 50 49 49 46 41 37 35 37 39 37 31 25 21 21 21 18 14 11 10 8 5 3 3 3 3 3 3 3 3 3 4 4 4 2 1 0 0 0 1
65 65 67 67 63 60 56 52 48 45 44 45 45 40 35 30 26 23 20 16 13 12 11 9 5 3 2 2 1 1 2 2 2 2 3 3 2 1 0 0 0 0 1
73 75 77 76 72 67 64 60 59 58 57 55 51 47 43 37 30 23 19 17 15 12 11 9 6 3 1 0 0 1 2 2 2 2 1 1 0 0 0 0 0 0 1
69 75 80 80 77 74 71 68 67 66 65 63 59 55 49 39 30 23 20 19 17 13 11 8 4 2 1 0 0 0 1 3 3 2 1 0 0 0 0 0 0 0 0
61 68 76 80 81 78 73 70 68 67 68 68 66 61 52 40 31 27 25 22 19 15 12 7 3 2 1 0 0 0 1 2 2 1 0 0 0 0 0 0 0 0 0
60 65 70 75 79 78 72 67 66 67 69 70 69 62 53 42 36 34 31 26 22 19 15 10 5 4 2 0 0 0 0 0 0 0 0 0 0 0 0 0 0 0 0
67 66 66 70 76 77 73 69 68 69 70 69 66 59 51 43 39 36 32 28 24 22 19 13 9 7 5 1 0 0 0 0 0 0 0 0 0 0 0 0 0 0 0
66 65 66 71 78 79 76 73 70 68 67 64 59 53 47 42 38 34 30 27 25 22 19 16 12 10 6 2 0 0 0 0 0 0 0 0 0 0 0 0 0 0 0
59 62 66 73 78 79 76 73 69 65 62 58 52 46 43 39 36 32 29 26 24 22 20 18 15 11 6 2 0 0 0 0 0 0 0 0 0 0 0 0 0 0 0
57 59 63 68 73 73 70 68 66 64 61 57 51 45 41 37 34 32 29 24 22 22 21 18 14 10 7 2 0 0 0 0 1 1 1 0 0 0 0 0 0 0 0
54 54 55 58 60 62 60 59 59 60 59 57 53 46 39 35 32 30 25 21 20 20 19 16 12 10 8 4 1 0 0 0 1 1 1 0 0 0 0 0 0 0 0
49 47 46 46 46 47 48 49 49 50 51 52 48 41 35 31 29 25 21 17 16 16 16 15 13 11 9 5 2 0 0 0 0 0 0 0 0 0 0 0 0 0 0
43 40 38 37 36 37 38 39 39 41 44 44 39 33 30 28 26 21 17 13 11 10 10 11 11 9 6 3 1 0 0 0 0 0 0 0 0 0 0 0 0 0 0
38 36 34 33 33 34 34 34 35 38 41 39 31 27 27 27 24 20 15 10 7 5 5 5 5 4 3 1 0 0 0 0 0 0 0 0 0 0 0 0 0 0 0

GEFSMW_con_prob3kmehi_174.txt.gz
EHI
61 61 59 63 73 84 85 76 63 52 42 35 32 28 25 24 26 30 27 18 9 6 9 11 11 8 7 7 5 3 2 2 3 3 1 1 4 10 16 17 15 14 14
71 70 66 66 74 85 86 77 67 57 48 40 35 29 26 25 25 30 30 22 12 8 8 10 10 9 8 10 9 6 4 4 4 3 2 1 2 5 8 11 13 14 15
80 79 74 71 76 83 85 80 73 63 53 46 38 31 27 25 27 34 37 30 20 14 11 12 13 12 11 12 11 9 8 6 5 5 3 2 1 1 2 4 7 12 16
79 79 79 76 75 79 84 83 78 68 57 48 40 33 30 28 31 40 42 36 27 20 18 18 18 17 14 12 10 10 11 9 8 7 6 3 2 1 0 1 3 7 11
71 75 80 78 74 74 80 83 80 73 62 52 42 36 33 32 34 40 40 36 30 25 23 24 23 20 16 13 11 11 12 11 10 11 9 6 5 4 1 0 1 2 4
62 71 78 78 73 71 76 82 81 76 68 56 45 40 37 35 36 39 38 34 31 29 27 28 28 25 21 18 15 13 12 12 13 13 12 9 7 6 3 1 0 0 1
57 64 73 75 74 72 76 80 81 77 70 60 50 44 39 37 39 42 41 37 33 31 29 28 28 27 25 23 19 16 14 14 14 13 10 8 6 5 4 2 0 0 0
50 57 67 73 75 75 76 80 80 78 72 64 57 50 42 38 41 43 41 39 34 28 26 25 23 23 23 22 21 19 17 17 16 13 10 8 7 6 6 3 1 0 0
43 53 65 71 73 75 77 79 79 77 73 67 61 54 47 44 46 43 38 35 29 24 23 20 18 19 20 21 21 20 18 18 17 14 12 11 10 8 7 5 2 1 1
41 53 64 68 69 74 77 77 77 78 75 70 63 56 52 52 51 45 37 30 24 21 20 19 17 18 19 20 20 17 16 16 16 13 11 11 10 8 7 5 3 2 1
43 54 64 65 64 69 75 76 77 78 78 74 67 60 57 56 53 46 38 28 21 19 20 20 17 16 17 19 19 16 15 15 12 9 8 8 7 6 5 2 2 1 1
47 56 66 66 64 68 73 75 77 79 79 76 71 65 61 57 53 47 40 32 25 21 21 20 18 17 17 18 18 16 14 11 8 7 6 6 6 5 3 1 0 1 1
57 62 70 73 72 73 76 75 75 78 78 76 74 69 63 58 53 48 42 36 29 24 23 22 20 18 17 16 14 14 11 6 4 5 6 5 5 5 2 0 0 0 0
70 72 78 82 82 82 82 78 76 77 78 78 76 71 64 59 55 50 45 39 30 24 25 25 22 18 15 12 10 10 8 5 3 4 6 5 4 3 2 0 0 0 0
76 79 86 90 91 90 88 84 81 81 82 80 78 74 68 63 59 54 48 41 31 27 28 27 20 13 9 7 7 7 7 6 6 5 4 3 2 1 0 0 0 0 0
73 80 90 95 96 95 91 87 86 86 85 82 80 77 73 69 64 57 51 44 37 33 33 28 18 11 6 3 3 6 8 10 9 6 3 1 0 0 0 0 0 0 0
72 80 89 94 96 95 90 86 85 84 82 80 79 78 76 73 68 61 54 49 42 38 35 28 19 12 6 2 1 4 8 10 9 6 4 2 1 1 1 1 0 0 0
77 80 85 90 93 93 89 84 82 82 81 80 80 80 78 75 70 65 59 52 45 39 34 29 21 14 8 3 0 1 5 8 8 6 5 5 5 2 2 2 1 1 1
79 79 82 85 89 91 90 86 83 84 84 82 82 82 81 76 72 68 60 52 46 41 35 30 25 18 11 4 0 1 3 6 6 5 5 6 5 2 1 2 1 1 0
75 76 78 81 85 88 89 87 86 86 85 83 83 83 80 75 71 66 59 52 47 42 37 32 28 22 15 7 1 1 3 5 5 5 4 3 2 1 0 1 1 0 0
73 74 76 78 79 82 85 86 86 84 82 81 82 79 73 68 66 63 58 53 47 42 38 34 29 23 16 8 2 1 2 4 5 5 3 1 0 0 0 0 0 0 0
70 70 72 73 72 73 77 80 81 78 75 75 75 72 66 61 59 60 58 54 48 41 36 32 27 20 15 8 2 0 1 2 3 3 2 1 0 0 0 0 0 0 0
64 65 66 66 66 66 67 69 71 69 66 66 68 66 62 57 56 56 54 49 44 36 31 27 22 17 14 9 3 0 0 0 1 1 1 0 0 0 0 0 0 0 0
59 60 60 60 60 60 60 60 61 61 59 60 62 62 59 55 52 48 43 38 33 28 25 23 20 16 13 10 4 1 0 0 0 0 0 0 0 0 0 0 0 0 0
56 55 54 53 53 55 57 56 56 56 54 54 55 55 53 48 42 36 29 23 20 18 17 17 17 14 11 8 5 1 0 0 0 0 0 0 0 0 0 0 0 0 0
52 50 49 48 48 51 55 54 53 52 50 49 49 48 48 43 36 29 22 14 11 10 9 10 11 11 9 6 4 1 0 0 0 0 0 0 0 0 0 0 0 0 0

GEFSMW_con_prob3kmehi_180.txt.gz
EHI
41 48 56 59 57 52 45 41 36 28 19 13 9 6 6 6 6 4 2 3 5 5 4 3 2 1 0 0 0 0 0 0 0 0 0 0 0 0 0 0 0 0 0
50 54 60 63 64 61 53 46 40 30 21 15 12 10 7 5 4 4 2 3 5 4 3 1 1 0 0 0 0 0 0 0 0 0 0 0 0 0 0 0 0 0 0
55 59 63 66 70 69 64 56 47 36 25 18 17 17 14 8 4 3 2 3 4 3 1 0 0 0 0 0 0 0 0 0 0 0 0 0 0 0 0 0 0 0 0
55 58 63 67 71 73 70 62 53 43 31 23 22 23 21 14 6 3 3 3 3 2 1 0 0 0 0 0 0 0 0 0 1 1 1 0 0 0 0 0 0 0 0
55 58 62 66 71 75 72 64 55 47 36 28 24 25 24 18 10 5 4 3 3 1 1 1 0 0 0 0 1 1 0 0 1 2 1 0 0 0 0 0 0 0 0
58 59 61 65 70 75 73 65 58 51 41 32 26 25 24 20 14 9 6 4 2 1 1 1 0 0 0 1 2 1 0 0 1 1 1 0 0 0 0 0 0 0 0
59 57 58 62 68 72 71 65 61 56 45 36 29 24 21 19 16 12 7 4 2 1 1 1 0 0 1 2 2 1 1 0 0 0 0 0 0 0 0 0 0 0 0
54 53 55 60 65 68 68 66 63 58 49 41 33 24 19 17 18 14 8 4 2 1 0 0 0 0 1 3 4 3 2 1 0 0 0 0 0 0 0 0 0 0 0
50 50 52 58 63 65 65 65 64 59 52 46 38 28 21 19 19 16 11 6 4 3 2 2 1 2 3 4 5 5 3 2 1 1 0 0 0 0 0 0 0 0 0
51 51 52 55 60 60 60 62 63 61 55 50 44 33 25 21 20 18 14 10 7 6 7 6 5 5 5 6 6 5 4 3 3 2 1 1 0 0 0 0 0 0 0
51 52 52 54 57 58 59 61 64 62 58 55 49 38 28 23 22 21 16 11 9 10 11 10 8 7 6 6 6 5 4 3 3 3 3 2 1 1 0 0 0 0 0
48 50 53 54 57 60 61 62 64 63 60 57 51 41 32 27 26 23 17 13 12 11 11 10 7 6 6 6 6 6 4 3 3 3 3 2 1 0 0 0 0 0 0
47 50 54 58 60 62 62 61 62 62 60 58 54 46 38 33 29 23 19 16 14 11 9 7 6 4 4 5 6 5 3 2 2 3 3 2 1 0 0 0 0 0 0
47 50 54 56 58 61 63 61 60 61 60 58 56 51 43 36 29 23 20 18 15 11 8 6 4 3 3 4 4 3 2 1 1 1 2 2 1 0 0 0 0 0 0
49 51 52 53 56 62 66 66 63 63 62 60 57 51 43 36 30 25 22 19 15 11 7 5 3 3 3 3 3 3 1 0 0 0 1 1 0 0 0 0 0 0 0
55 56 54 54 58 65 70 71 69 68 68 64 59 53 46 39 34 28 23 19 15 11 7 4 3 3 3 3 3 3 2 1 0 0 0 0 0 0 0 0 0 0 0
57 58 56 57 60 64 67 70 70 70 71 68 63 58 52 45 39 32 24 19 16 11 7 5 4 3 3 3 2 3 3 2 1 0 0 0 0 0 0 0 0 0 0
50 52 55 59 61 59 59 63 65 66 68 68 64 60 56 52 46 36 26 20 17 12 9 6 4 3 3 1 1 1 2 2 1 0 0 0 0 0 0 0 0 0 0
47 47 52 57 58 55 54 57 60 61 62 64 62 59 57 54 48 38 28 21 17 13 10 6 4 4 3 1 0 0 1 1 0 0 0 0 0 0 0 0 0 0 0
48 47 49 52 52 50 50 54 56 56 56 57 57 55 53 49 44 36 28 22 17 15 12 8 6 6 5 2 1 0 0 0 0 0 0 0 0 0 0 0 0 0 0
49 49 49 50 49 48 50 52 52 51 52 52 51 50 48 44 39 34 30 25 21 18 15 10 7 7 7 4 1 0 0 0 1 1 0 0 0 0 0 0 0 0 0
48 48 49 49 48 48 49 49 48 47 48 48 46 45 44 42 38 34 31 28 25 22 17 11 7 7 7 5 2 0 0 0 1 2 1 0 0 0 0 0 0 0 0
43 43 44 46 46 45 44 42 40 41 41 40 37 36 37 37 36 33 30 29 28 24 19 13 9 7 7 5 2 0 0 0 1 2 1 0 0 0 0 0 0 0 0
36 35 36 39 39 38 36 34 33 32 31 30 28 26 28 31 32 30 27 28 28 24 19 15 11 10 8 6 3 1 0 0 0 1 1 0 0 0 0 0 0 0 0
27 26 26 27 28 28 29 29 28 27 25 24 21 20 22 25 27 25 22 21 20 17 14 11 9 8 7 5 3 1 0 0 0 0 0 0 0 0 0 0 0 0 0
21 19 18 19 20 22 24 26 27 26 24 20 18 17 19 21 22 20 16 13 10 8 7 6 5 5 4 3 1 1 0 0 0 0 0 0 0 0 0 0 0 0 0

GEFSMW_con_prob3kmehi_186.txt.gz
EHI
4 9 18 24 23 19 19 17 10 3 4 7 9 9 7 3 1 0 0 0 1 2 2 1 0 0 0 0 0 0 0 0 0 0 0 0 0 0 0 0 0 0 0
8 13 21 27 26 23 22 19 11 4 3 6 8 7 5 2 0 0 0 0 0 1 1 0 0 0 0 0 0 0 0 0 0 0 0 0 0 0 0 0 0 0 0
12 16 23 29 30 27 24 21 14 6 4 7 9 8 4 2 1 0 0 0 0 0 0 0 0 0 0 0 0 0 0 0 0 0 0 0 0 0 0 0 0 0 0
14 17 23 29 30 27 23 22 17 10 7 10 13 11 6 3 1 0 0 0 0 0 0 0 0 0 0 0 0 0 0 0 0 0 0 0 0 0 0 0 0 0 0
15 18 23 28 29 25 23 24 21 15 12 13 15 12 8 5 3 1 0 0 0 0 0 0 0 0 0 0 0 0 1 0 0 0 0 0 0 0 0 0 0 0 0
18 20 25 29 29 26 25 26 24 19 15 15 14 12 9 8 6 3 2 0 0 0 0 0 0 0 0 0 0 0 1 1 1 1 0 0 0 0 0 0 0 0 0
21 23 28 32 33 29 26 27 26 22 17 15 15 12 10 9 8 6 3 1 0 0 0 0 0 0 0 0 0 1 1 2 2 2 1 1 1 1 0 0 0 0 0
22 24 28 33 35 32 30 30 29 24 19 17 16 14 12 11 9 6 3 1 1 0 0 1 1 0 1 1 1 2 3 3 4 3 2 2 2 2 1 1 0 0 0
18 21 25 31 34 34 33 35 34 29 23 21 19 18 16 14 11 8 6 3 3 2 2 2 1 1 2 2 3 3 3 4 5 5 3 3 3 3 3 2 1 0 0
15 17 22 29 31 31 32 33 33 29 25 23 22 22 20 17 14 13 11 8 7 6 5 3 1 1 2 3 3 3 3 4 5 5 4 3 3 3 3 3 2 0 0
16 17 23 28 29 28 28 27 27 25 23 21 22 24 22 19 16 16 14 12 11 9 6 3 1 1 2 3 3 3 3 3 4 4 3 2 2 2 2 2 1 0 0
18 19 24 29 30 29 28 24 22 21 20 20 23 25 24 20 18 16 15 12 10 8 6 3 2 2 3 3 3 3 3 3 3 3 2 1 1 1 1 1 0 0 0
20 21 24 29 31 31 29 24 20 19 20 23 26 28 26 23 18 16 13 11 8 5 4 3 3 3 3 3 3 3 3 3 3 3 3 1 0 0 0 0 0 0 0
21 21 22 25 28 30 30 26 22 20 22 25 29 30 29 27 22 18 14 10 6 3 2 2 2 2 2 3 3 3 3 3 3 3 3 2 1 0 0 0 0 0 0
21 21 21 23 26 30 31 28 25 25 26 29 31 32 32 31 27 22 17 11 6 3 2 1 1 1 1 1 2 2 3 3 3 3 3 3 2 1 0 0 0 0 0
22 21 21 23 27 30 31 28 28 31 34 36 36 36 35 34 29 23 18 13 10 8 6 3 1 0 0 0 1 1 1 2 2 3 3 3 2 1 0 0 0 0 0
18 18 20 24 26 28 30 29 31 35 39 40 39 38 38 36 29 23 20 18 16 13 9 4 1 0 0 0 0 0 0 1 1 1 2 2 2 1 0 0 0 0 0
13 14 17 21 23 24 27 28 30 33 37 40 40 39 39 36 30 26 23 21 20 15 9 4 2 1 0 0 0 0 0 0 0 0 1 1 1 0 0 0 0 0 0
14 15 18 22 25 25 26 28 31 33 35 38 39 39 37 35 31 26 23 22 20 14 8 5 3 1 0 0 0 0 0 0 0 0 0 0 0 0 0 0 0 0 0
20 21 23 27 30 30 29 31 33 35 36 38 38 39 37 35 31 25 21 20 19 14 9 7 5 3 1 0 0 0 0 0 0 1 1 1 0 0 0 0 0 0 0
23 23 25 27 29 30 31 33 34 36 38 39 40 40 37 33 28 24 20 19 17 13 10 8 6 5 3 1 0 0 0 1 1 1 2 1 0 0 0 0 0 0 0
23 22 22 22 21 23 26 29 31 32 34 37 39 37 34 31 28 25 22 19 16 12 9 8 7 6 4 2 0 0 0 0 0 1 1 1 0 0 0 0 0 0 0
22 21 19 18 15 15 19 21 23 25 26 28 31 31 29 28 27 26 25 22 17 13 10 8 7 7 6 3 1 0 0 0 0 0 0 0 0 0 0 0 0 0 0
19 19 17 14 12 12 14 16 18 20 20 21 24 24 24 25 24 23 22 20 18 16 13 11 11 10 7 4 2 1 0 0 0 0 0 0 0 0 0 0 0 0 0
14 15 14 12 11 12 13 15 17 18 17 18 20 20 19 20 19 16 14 12 11 12 11 11 12 10 6 3 2 1 0 0 0 0 0 0 0 1 1 0 0 0 0
10 11 11 10 11 12 13 15 16 16 16 18 19 18 17 15 14 13 9 5 4 5 6 8 9 7 3 1 1 1 0 0 0 0 0 0 1 2 2 1 1 1 1

GEFSMW_con_prob3kmehi_192.txt.gz
EHI
8 11 16 22 30 37 38 35 31 30 29 21 14 12 10 7 5 4 3 1 1 2 3 2 2 2 1 1 1 1 1 2 3 3 1 0 0 1 0 0 1 2 3
12 15 19 25 32 38 40 37 34 32 30 23 14 11 9 7 6 6 3 1 1 2 3 2 1 1 1 2 3 3 2 2 3 3 1 0 0 1 0 1 2 2 3
18 21 25 29 33 38 40 38 38 37 34 27 18 13 10 7 7 8 5 1 1 1 2 2 2 2 3 3 4 4 5 4 3 3 2 1 0 0 0 1 2 3 3
21 25 30 31 33 38 40 40 42 43 41 34 27 20 14 9 8 9 6 2 1 1 1 1 2 3 3 3 3 4 5 4 3 3 4 3 2 1 1 1 2 2 2
19 24 29 31 32 36 40 43 45 48 47 42 37 30 20 13 10 10 9 6 4 3 2 2 3 3 3 3 3 3 4 3 3 3 4 6 6 5 4 3 2 2 2
18 22 28 32 33 35 40 44 47 50 50 47 43 36 28 21 17 14 14 11 8 6 5 4 4 4 3 3 3 4 4 4 4 4 5 8 9 9 9 6 4 3 3
19 24 31 37 39 40 43 48 51 52 50 48 44 38 32 26 21 17 16 14 10 7 5 5 5 5 4 4 4 5 5 5 6 6 8 10 12 13 12 9 6 5 5
21 25 32 40 43 45 50 56 58 55 51 48 44 39 32 23 18 17 15 14 12 8 6 7 7 7 6 6 7 7 7 6 6 8 11 12 13 13 13 11 9 8 7
22 25 31 38 42 45 50 55 57 54 49 46 42 38 31 22 17 17 18 19 17 12 10 10 9 10 11 11 12 11 8 7 7 8 11 12 11 11 11 10 11 10 9
27 30 35 39 40 42 46 50 52 50 45 41 39 36 32 28 24 23 26 28 26 20 15 12 10 11 13 15 16 13 9 7 6 7 8 9 9 9 9 10 11 11 10
34 38 42 41 41 43 46 48 50 50 46 42 40 38 37 36 32 31 34 36 34 28 21 15 12 11 13 15 14 11 8 5 4 4 5 7 8 8 8 10 10 10 10
42 45 48 48 48 48 47 47 48 50 49 47 47 45 43 42 40 40 43 44 40 33 26 21 16 14 14 13 9 6 4 3 2 3 4 5 6 7 7 8 8 8 8
49 52 55 57 57 54 50 47 46 47 47 48 51 51 48 47 47 47 48 49 45 38 32 26 21 18 16 11 6 3 3 3 3 4 3 3 3 4 5 6 7 7 7
54 55 58 62 64 62 58 54 52 50 49 50 52 50 48 48 49 50 50 49 46 42 38 31 24 20 15 9 6 5 5 6 7 5 3 1 2 3 4 6 8 9 7
56 55 56 60 64 65 63 60 58 58 57 55 53 50 48 48 50 52 52 50 47 45 43 38 29 20 13 9 8 8 9 9 9 7 3 1 1 1 2 4 7 8 7
56 55 53 53 55 59 61 59 58 61 61 59 56 54 52 53 55 55 55 54 51 48 46 42 34 24 14 9 8 9 11 12 11 9 5 2 1 2 2 2 3 3 4
55 55 53 49 49 52 57 58 58 59 60 59 56 55 55 56 57 57 56 55 52 50 47 43 37 28 17 8 4 6 12 16 15 11 7 3 3 5 5 4 3 3 3
55 54 51 48 48 52 56 58 57 57 56 55 54 54 54 55 55 55 54 53 52 51 47 41 35 29 18 7 1 4 12 18 18 13 8 6 6 7 8 8 8 8 8
54 50 46 45 48 53 58 59 56 54 53 53 53 54 54 53 52 50 49 48 49 49 46 39 33 28 19 6 0 4 13 19 17 13 9 7 6 6 6 9 11 12 12
45 43 40 41 46 50 54 56 54 52 52 51 51 52 53 51 48 46 44 44 44 44 42 36 30 27 19 7 0 4 13 17 16 14 12 8 5 3 3 6 10 10 10
34 33 31 35 40 43 45 48 48 48 49 50 49 49 49 46 42 41 40 40 40 39 37 34 29 25 17 7 1 3 9 14 16 17 16 10 3 1 1 3 6 6 5
26 24 23 26 33 36 36 37 39 40 42 45 47 46 44 40 37 36 37 38 38 36 33 31 29 24 16 8 3 2 3 8 14 17 15 9 3 0 0 1 2 2 1
20 19 18 21 26 30 31 31 33 35 36 37 38 38 38 36 35 34 35 37 38 35 32 30 29 24 19 14 8 3 1 3 9 13 10 5 1 0 0 0 0 0 1
18 19 20 20 21 23 26 27 30 33 34 32 31 30 31 32 33 32 32 33 34 34 32 30 28 26 23 19 13 7 4 3 5 6 4 1 0 0 0 0 0 0 1
17 20 20 19 17 17 18 22 27 31 32 30 28 26 25 27 29 28 25 25 24 24 24 23 22 22 20 15 11 8 5 4 3 2 1 0 0 0 0 0 0 1 1
18 19 19 17 14 13 14 19 24 28 30 29 26 24 24 25 26 24 20 17 14 13 12 13 15 17 13 8 5 5 4 3 2 1 0 0 0 0 0 0 1 2 2

GEFSMW_con_prob3kmehi_198.txt.gz
EHI
47 49 50 51 61 72 73 62 52 47 41 36 34 33 30 26 26 30 34 30 21 16 14 11 11 11 9 7 6 6 6 5 4 3 2 2 4 7 10 11 12 12 13
54 57 55 57 67 77 76 66 57 51 44 38 37 35 30 26 27 33 35 29 20 14 11 11 10 9 11 11 11 10 9 8 6 3 2 2 3 5 7 10 13 15 17
62 64 63 63 73 81 80 72 67 60 50 43 39 38 36 31 32 38 40 32 22 15 12 12 11 10 12 14 14 13 12 11 8 7 6 5 4 4 5 7 11 16 20
62 67 68 67 72 79 81 81 78 70 58 48 42 42 43 39 39 44 45 39 30 22 19 19 19 15 12 12 12 12 12 11 9 8 9 8 6 5 5 5 6 10 15
57 65 71 70 69 76 83 85 83 77 67 55 47 45 45 43 43 47 48 45 41 33 28 28 27 21 15 13 13 11 11 10 8 7 7 7 7 7 8 6 5 7 9
50 60 71 73 72 77 84 86 84 81 73 62 53 49 45 42 44 48 49 47 45 42 37 34 32 26 20 18 18 15 12 10 9 7 6 6 7 9 9 8 7 7 7
42 54 69 77 79 83 88 89 87 83 75 66 60 55 50 45 45 45 46 45 44 44 44 41 39 33 26 23 22 20 15 13 11 9 8 8 10 11 11 9 7 6 6
37 48 63 76 83 87 91 92 90 84 76 70 67 63 58 50 45 44 44 44 43 44 48 50 47 41 32 27 26 23 19 17 16 13 12 13 13 13 13 10 8 7 6
37 45 57 71 82 88 92 94 92 87 81 76 73 70 65 54 45 44 45 44 45 48 53 54 51 46 39 33 29 25 22 22 21 17 16 16 14 13 13 11 10 8 6
38 44 52 65 78 85 90 92 93 90 86 81 76 72 68 59 49 46 45 46 50 54 56 54 50 47 43 38 32 27 24 24 23 22 20 18 15 13 12 12 11 10 8
40 44 52 63 73 81 86 91 92 90 88 85 79 75 72 67 59 53 50 50 54 57 57 55 51 46 42 39 35 29 24 23 23 23 22 19 17 14 13 12 11 11 11
45 49 57 65 71 78 84 88 89 88 87 87 84 82 81 77 70 62 57 55 55 56 56 55 51 45 40 39 37 30 21 20 22 23 22 19 16 15 14 13 11 11 11
55 59 66 71 73 76 82 84 83 82 83 83 85 86 86 83 77 69 64 59 57 56 55 53 50 46 41 40 38 30 22 21 23 23 22 18 15 15 15 14 12 11 11
66 70 75 78 77 79 81 80 78 78 78 79 82 84 85 83 78 71 67 64 61 59 56 53 50 45 40 37 35 30 26 26 27 25 22 17 14 14 14 13 11 11 12
70 74 79 82 83 83 81 77 76 77 78 78 80 82 82 80 74 68 65 64 62 58 57 55 50 43 35 29 29 28 27 30 30 26 21 16 12 10 10 10 10 12 13
69 72 76 80 83 83 79 75 74 76 77 78 78 79 77 74 69 65 63 62 60 57 55 53 50 42 30 21 20 23 28 31 30 27 22 15 9 8 7 6 6 9 11
65 66 68 70 73 74 73 72 71 71 73 76 75 74 71 67 66 65 63 61 58 55 53 52 50 42 28 17 14 17 25 30 29 27 24 18 11 8 7 6 5 6 7
59 59 59 60 60 63 67 69 68 67 69 71 70 67 64 62 63 63 61 58 55 53 52 51 51 43 28 15 8 10 19 26 26 25 24 21 15 9 8 9 8 7 6
52 52 53 54 55 59 65 67 65 62 64 66 66 62 59 58 59 58 57 55 53 52 51 50 51 45 30 14 5 7 15 22 23 23 22 20 14 7 6 9 11 10 9
42 44 47 50 52 57 63 65 61 56 58 61 61 57 54 54 53 53 54 53 51 49 48 48 49 45 33 16 5 6 13 19 21 21 20 17 11 4 2 6 9 9 9
36 36 38 42 46 52 58 59 56 51 50 52 50 48 47 46 47 50 52 51 48 45 45 45 45 43 34 18 6 4 9 16 20 23 22 16 8 2 1 2 5 6 6
32 31 32 36 40 44 48 51 50 45 41 40 39 40 41 41 42 46 47 46 43 41 40 40 40 39 33 21 8 3 4 10 16 20 18 12 4 0 0 1 2 4 4
30 29 28 30 33 35 38 42 42 38 35 34 34 34 37 39 40 40 40 39 37 35 34 35 34 33 31 24 13 3 1 4 8 10 7 4 1 0 0 0 1 3 3
27 26 24 25 26 26 29 35 37 36 35 36 36 33 33 35 35 33 31 30 29 29 29 31 30 30 31 27 18 8 3 2 3 2 2 1 1 0 0 0 1 3 4
23 23 23 23 22 21 23 28 34 37 38 38 37 32 29 29 28 25 21 18 17 19 22 25 27 27 27 24 17 11 6 3 2 2 3 3 3 1 1 2 3 4 5
22 23 24 23 19 18 20 26 33 37 39 38 35 29 25 25 25 21 15 10 9 11 14 19 24 24 22 18 13 10 7 3 2 3 4 5 4 3 3 3 4 5 6

GEFSMW_con_prob3kmehi_204.txt.gz
EHI
21 28 34 38 39 33 29 26 21 16 15 15 13 9 5 3 2 1 1 2 2 1 0 0 0 0 0 0 0 0 0 0 0 0 0 0 0 0 0 0 0 0 0
27 34 43 49 49 41 34 30 24 19 16 14 12 8 5 2 1 1 1 1 2 2 1 0 0 0 0 0 0 0 0 0 0 0 0 0 0 0 0 0 0 0 0
35 41 52 60 59 51 43 38 33 26 20 15 12 9 7 5 4 3 2 1 2 3 2 1 0 0 0 0 0 0 0 0 0 0 0 0 0 0 0 0 0 0 0
37 43 54 62 62 58 53 49 42 33 26 20 15 12 11 9 7 5 3 2 2 3 3 2 1 1 1 0 0 0 0 0 0 0 0 0 0 0 0 0 0 0 0
38 42 51 58 60 61 60 55 48 40 31 26 21 17 14 11 9 8 7 5 4 5 5 3 2 3 3 1 1 0 0 0 0 0 0 0 0 1 1 1 1 1 1
37 40 46 52 57 61 63 62 57 47 38 33 28 22 18 15 14 15 14 12 9 8 8 6 5 5 5 4 2 1 0 0 0 0 0 1 1 2 2 2 1 2 2
35 37 43 51 58 63 66 67 65 57 48 42 35 28 23 20 20 21 22 19 14 10 8 7 6 6 6 5 3 2 1 1 2 2 1 1 2 2 3 3 3 3 2
37 39 44 52 62 69 71 71 69 64 58 53 44 35 29 25 23 25 24 21 17 12 10 9 8 9 9 7 6 4 3 3 4 3 2 1 1 2 3 3 4 4 3
40 42 46 52 62 73 76 73 69 66 63 59 50 40 33 27 25 25 23 20 17 15 14 13 13 14 14 12 10 7 5 4 5 4 3 3 2 2 2 3 4 4 3
39 44 48 52 59 67 74 73 67 64 62 57 49 40 34 30 28 27 24 20 18 18 18 18 18 18 18 16 12 8 6 5 4 3 3 4 3 1 1 1 1 2 2
37 42 48 52 55 61 66 66 64 62 61 56 48 41 36 32 31 29 27 24 22 21 21 19 18 17 17 16 12 8 6 5 2 1 2 2 1 0 0 0 0 0 1
37 40 46 51 54 57 60 60 61 64 63 58 51 45 39 35 31 28 27 25 22 21 21 21 18 16 16 15 13 9 6 3 1 1 1 0 0 0 0 0 0 0 0
41 42 45 50 51 52 53 54 56 60 60 57 54 48 43 38 32 28 25 23 19 18 20 20 19 17 15 13 12 10 6 3 1 1 1 0 0 0 0 0 0 1 1
45 42 42 45 44 43 44 46 48 51 53 54 54 51 46 40 33 28 25 23 20 19 19 18 17 16 14 11 11 11 9 4 1 1 1 0 0 0 0 0 0 1 2
45 42 38 37 37 36 37 39 42 45 50 53 53 51 47 41 33 28 26 26 24 24 20 16 15 14 14 12 12 13 12 8 3 1 1 1 1 1 1 0 1 2 3
42 40 35 32 31 31 33 35 36 40 47 51 50 49 46 41 34 29 27 27 26 26 23 18 15 15 15 14 13 14 14 10 6 5 4 4 4 2 1 0 1 2 2
39 37 33 30 28 27 29 30 29 32 39 44 45 45 45 42 38 34 30 29 27 27 25 20 16 16 15 13 11 13 14 11 8 7 7 7 6 4 2 1 1 1 1
38 36 34 32 29 25 24 25 25 28 33 37 38 39 42 43 40 37 34 32 29 28 26 23 19 17 15 11 7 8 11 11 8 8 9 9 7 5 3 2 3 2 1
35 34 34 34 30 26 23 23 24 26 29 30 31 33 36 39 38 37 36 34 31 29 28 25 22 19 15 9 4 4 8 10 8 7 8 8 6 3 2 3 4 3 2
28 28 29 30 28 25 23 22 21 21 22 23 24 27 31 33 33 33 33 32 31 30 27 24 23 20 14 7 3 3 6 8 7 6 6 6 5 2 1 2 3 3 3
21 21 22 22 21 20 19 17 15 14 14 16 19 23 28 29 27 27 27 27 28 28 25 20 20 19 13 7 3 2 5 6 7 7 6 5 4 2 1 1 1 2 2
15 15 14 13 12 12 11 11 10 10 9 10 14 18 22 24 22 20 20 21 22 22 19 16 16 17 14 8 3 1 2 3 5 6 7 6 3 1 0 0 0 1 1
10 10 9 7 5 5 5 5 6 7 7 7 9 12 15 17 16 14 13 14 14 13 12 11 13 15 15 12 6 2 1 1 2 4 5 4 2 1 0 0 0 0 0
6 6 5 3 1 1 1 1 2 4 4 4 5 8 10 11 11 9 7 7 7 7 6 6 8 12 14 12 9 5 2 1 0 1 2 1 1 0 0 0 0 0 0
2 2 2 1 0 0 0 0 0 1 1 1 3 6 7 7 7 6 4 2 2 3 3 2 4 7 8 8 6 4 2 1 0 0 0 0 0 0 0 0 0 0 0
0 0 1 0 0 0 0 0 0 0 0 0 2 4 5 5 6 5 3 1 0 1 1 1 2 4 5 4 2 1 1 0 0 0 0 0 0 0 0 0 0 0 0

GEFSMW_con_prob3kmehi_210.txt.gz
EHI
1 1 3 5 6 5 4 2 1 1 1 1 0 0 0 0 0 0 0 0 1 1 0 0 0 0 0 0 0 0 0 0 0 0 0 0 0 0 0 0 0 0 0
2 2 4 7 8 7 6 4 2 3 3 3 2 1 0 0 0 0 0 1 2 2 1 0 0 0 0 0 0 0 0 0 0 0 0 0 0 0 0 0 0 0 0
5 4 5 7 8 8 8 7 5 6 7 7 7 4 2 2 2 1 1 1 2 3 2 1 0 0 0 0 0 0 0 0 0 0 0 0 0 0 0 0 0 0 0
6 6 6 7 8 10 10 10 10 9 8 9 10 9 6 5 4 4 2 2 3 3 3 1 1 2 1 0 0 0 0 0 0 0 0 0 0 0 0 0 0 0 0
6 7 9 8 10 13 14 14 14 11 8 8 11 11 8 6 5 4 4 4 5 4 4 3 3 3 2 1 0 0 0 0 0 0 0 0 0 0 0 0 0 0 0
8 10 12 13 15 17 18 17 15 10 7 8 10 10 9 7 6 4 4 5 6 6 6 6 6 5 4 2 1 0 0 0 0 0 0 0 0 0 0 0 0 0 0
12 14 18 20 23 24 23 20 16 12 10 10 9 9 9 8 6 4 4 5 6 7 8 9 8 7 6 4 1 0 0 0 0 0 0 0 0 0 0 0 0 0 0
15 18 22 26 30 32 30 27 22 19 17 14 10 10 11 10 8 5 5 5 6 7 9 10 9 7 6 4 1 0 0 0 0 0 0 0 0 0 0 0 0 0 0
18 21 25 30 35 37 37 34 30 27 23 20 15 12 13 14 12 10 9 8 7 8 10 11 10 8 6 4 2 1 0 0 1 0 0 0 0 0 0 0 0 0 0
20 23 27 32 36 38 40 38 35 31 27 25 23 19 17 18 17 16 14 11 10 11 13 13 12 10 7 5 4 3 2 2 3 2 1 0 0 0 0 0 0 0 0
20 21 25 32 35 38 40 40 36 33 30 29 30 27 24 24 22 20 19 17 15 15 15 14 14 12 10 6 4 4 4 5 4 3 2 1 0 0 0 0 0 0 0
20 22 26 32 37 38 39 39 36 34 32 32 33 31 27 27 27 25 23 21 18 15 14 14 14 14 12 9 6 5 6 6 6 5 4 2 0 0 0 0 1 1 1
21 24 29 34 38 39 38 37 35 34 32 33 34 32 29 28 28 28 24 19 16 13 13 13 13 15 15 13 11 10 9 8 8 6 5 3 1 0 0 1 1 2 2
19 24 31 34 35 35 35 35 34 33 32 33 35 34 33 31 29 29 25 18 13 12 11 11 12 13 14 14 15 15 13 12 10 7 6 4 2 2 2 1 1 2 3
15 21 27 30 30 29 29 31 32 32 31 31 31 31 31 31 30 28 25 19 14 12 11 10 10 11 12 12 13 14 15 14 12 10 7 4 3 2 2 2 2 2 2
16 19 24 26 25 23 22 25 29 30 29 27 25 24 23 24 24 24 23 21 17 14 12 10 9 10 11 11 10 11 12 13 14 13 9 6 2 2 2 2 2 2 1
19 19 21 22 21 21 20 22 25 27 25 21 19 17 16 18 18 19 20 20 18 16 14 12 10 10 10 10 9 9 10 12 13 14 12 8 5 4 4 4 2 1 1
21 20 19 19 19 20 20 20 21 22 21 18 15 13 13 15 17 17 17 16 16 17 16 14 11 10 10 9 7 7 9 10 11 12 11 10 9 8 8 7 6 4 2
19 20 20 19 18 18 19 19 19 18 17 15 12 10 11 12 14 16 14 14 15 17 16 14 11 10 10 9 6 6 8 10 10 9 9 9 10 9 8 8 9 7 6
17 19 19 18 16 14 15 16 17 16 14 12 11 10 10 10 12 12 12 11 12 14 14 13 12 11 10 7 3 4 8 10 10 9 8 7 7 6 4 5 7 7 6
17 16 14 12 10 9 10 11 12 12 10 9 9 9 9 9 9 9 9 9 9 12 15 14 13 12 11 6 1 2 6 9 9 9 7 6 4 3 1 2 3 4 4
14 12 9 6 4 5 5 6 7 8 7 7 7 8 8 7 7 7 9 9 10 12 15 15 13 13 11 6 1 1 2 4 6 7 5 4 2 1 0 0 1 1 1
10 7 5 3 3 3 4 4 4 5 5 5 5 6 7 7 6 7 9 11 12 15 15 13 10 10 10 7 3 1 0 1 2 3 3 2 1 0 1 1 0 0 0
5 3 2 3 3 3 3 2 2 2 3 3 4 5 5 6 5 5 7 9 13 15 13 9 6 6 7 7 5 2 1 0 0 1 1 1 1 1 2 2 1 0 0
2 1 1 2 2 2 1 1 1 0 1 1 2 3 2 2 2 2 3 5 8 9 7 5 3 2 3 3 3 2 1 0 0 0 0 1 2 2 2 2 1 0 0
1 1 1 1 1 1 0 0 0 0 0 0 1 1 1 1 0 0 1 2 3 3 2 2 1 1 0 1 1 1 0 0 0 0 0 1 1 1 1 1 1 0 0

GEFSMW_con_prob3kmehi_216.txt.gz
EHI
8 8 6 4 5 7 10 12 13 11 10 7 3 1 0 0 0 0 1 2 4 5 5 4 3 4 4 2 3 3 2 0 0 0 0 0 0 0 0 0 0 0 0
10 11 9 7 7 9 11 13 15 15 14 11 6 3 2 2 2 2 2 4 6 6 7 7 6 6 5 3 4 4 3 1 0 0 0 0 0 0 0 0 0 0 0
14 16 15 11 9 11 13 15 20 23 21 16 10 7 7 6 5 5 5 5 6 8 9 9 9 8 7 5 5 6 4 3 2 2 1 0 0 0 0 0 1 1 0
16 19 19 14 11 12 14 19 27 31 28 22 15 11 9 6 5 5 4 4 5 8 9 10 10 9 8 7 7 7 6 5 4 4 2 2 2 2 1 1 1 1 1
17 18 18 16 13 12 14 22 32 37 35 29 21 15 10 6 5 5 5 5 6 8 10 10 10 11 11 10 10 10 10 8 7 6 4 4 5 4 2 1 1 1 1
17 18 19 19 17 16 18 26 36 41 39 32 23 17 13 10 9 8 8 8 9 12 13 12 12 13 14 15 15 15 15 13 11 9 7 7 6 5 3 1 0 0 1
17 20 25 26 26 26 28 33 40 43 39 31 25 21 18 15 13 12 11 10 11 14 16 15 16 18 19 21 22 21 19 17 16 14 13 11 9 7 5 3 2 2 1
15 19 26 29 31 33 35 38 42 42 37 30 27 26 23 18 14 14 13 11 11 13 17 19 21 23 23 25 28 27 23 20 18 15 15 15 13 10 9 6 5 3 2
14 16 22 27 29 31 34 36 40 40 36 31 29 28 25 22 18 19 19 17 15 16 18 21 23 24 25 27 30 30 25 20 18 15 15 15 13 11 12 10 8 6 4
14 15 20 26 28 29 30 33 38 39 35 32 29 25 24 24 24 26 27 27 25 25 25 24 24 25 27 28 30 28 22 18 18 17 17 15 12 11 13 13 11 8 5
17 18 22 27 30 32 33 36 38 39 37 35 32 27 24 25 28 33 35 35 35 34 31 28 26 27 28 29 30 25 19 17 17 17 17 16 15 13 14 15 13 9 6
24 26 29 33 36 39 43 45 44 42 41 40 39 36 32 31 34 38 39 40 39 37 34 31 29 28 28 29 29 24 19 17 16 15 15 16 17 17 17 17 14 9 8
29 33 40 43 43 45 50 52 51 48 46 47 48 47 44 41 40 41 41 40 39 38 37 34 31 29 29 28 26 22 20 19 17 15 15 16 18 19 20 20 18 14 12
31 36 44 47 46 47 50 52 51 50 50 53 55 54 52 47 44 43 42 40 39 39 40 38 34 31 28 25 22 20 19 18 17 15 14 15 17 18 20 21 21 19 17
31 36 40 41 43 46 46 46 46 47 50 54 55 54 52 50 49 47 44 42 40 39 39 38 36 32 26 20 18 17 18 18 16 14 13 14 15 15 15 15 17 19 19
32 33 33 34 37 41 42 41 43 43 46 49 49 48 49 50 50 47 44 43 42 41 40 38 37 34 25 15 11 13 16 17 16 14 14 14 14 13 10 8 9 13 16
31 30 29 30 33 37 38 39 42 42 43 44 43 44 46 46 43 39 39 41 41 41 39 37 35 32 24 11 5 8 12 15 15 14 15 15 15 15 12 8 8 11 13
29 30 30 30 30 33 35 37 39 41 40 40 40 40 40 38 34 33 35 38 38 38 36 33 32 31 22 9 3 4 9 13 15 15 16 17 17 17 17 15 15 17 17
28 29 31 30 29 31 32 33 35 36 35 35 35 33 30 30 29 29 32 36 37 36 32 30 31 29 20 8 2 3 10 15 17 18 19 19 18 17 17 19 23 24 24
28 28 27 27 26 27 27 27 29 30 29 28 27 24 21 22 23 24 25 29 34 35 31 29 29 25 18 8 2 4 12 18 20 21 21 17 15 13 11 16 21 24 24
28 26 25 23 21 22 23 22 23 24 25 23 20 16 14 14 16 17 18 20 25 29 28 27 24 20 15 10 4 4 10 16 18 20 19 15 10 7 5 8 14 16 16
24 22 21 20 20 21 21 19 19 19 20 18 16 13 11 10 11 12 12 14 18 22 23 21 18 15 15 13 7 3 4 9 15 18 18 12 6 2 0 2 5 5 5
16 16 16 18 20 20 18 16 15 15 14 12 12 12 12 11 11 11 12 13 15 18 18 16 14 15 17 16 10 4 2 4 10 15 14 8 3 1 1 1 1 0 0
13 12 14 17 18 16 14 11 11 10 9 9 10 12 13 13 12 13 12 12 13 14 14 14 14 16 19 17 12 7 4 4 6 10 9 6 3 3 3 2 1 1 1
12 12 13 15 15 13 10 7 6 6 6 7 9 12 12 11 11 11 9 8 8 8 10 12 13 15 17 14 9 6 4 4 5 7 8 8 7 7 6 4 4 4 3
10 11 11 12 11 10 7 5 4 4 4 5 7 10 11 10 10 8 5 3 3 3 5 8 11 13 12 9 5 3 2 2 3 7 10 10 10 10 8 6 5 5 5

GEFSMW_con_prob3kmehi_222.txt.gz
EHI
40 42 41 42 50 59 59 52 44 38 31 25 20 19 16 11 9 14 23 25 19 14 13 13 14 15 14 11 7 7 8 7 5 3 2 1 1 1 4 9 11 11 11
50 54 52 49 58 67 65 57 49 44 35 26 19 18 17 14 13 19 27 28 21 15 14 14 13 14 15 13 9 8 8 7 6 4 3 2 2 2 4 9 12 12 12
59 63 62 60 66 73 70 63 60 55 43 32 22 19 22 23 25 30 34 32 25 19 17 15 13 13 17 17 13 10 8 8 8 7 6 5 4 4 4 6 10 13 14
58 63 65 64 67 71 70 68 68 63 52 40 30 25 26 29 35 40 39 34 28 23 21 18 14 14 16 18 17 14 12 11 11 11 10 9 8 7 5 4 7 11 13
52 59 65 66 66 67 68 71 72 67 58 46 36 30 27 28 35 40 39 35 30 26 25 23 19 15 15 15 17 18 17 16 16 16 15 14 13 10 7 5 6 9 11
47 56 66 69 68 66 67 73 75 69 60 50 41 35 29 30 35 38 37 33 31 30 31 30 26 21 18 16 18 22 24 24 23 21 19 17 17 14 10 8 7 7 7
45 54 65 71 71 68 70 76 77 72 64 55 48 42 36 34 37 39 37 32 31 33 39 41 39 34 28 25 26 29 30 30 28 25 22 21 20 16 13 11 9 6 5
42 49 61 68 69 70 74 79 80 75 68 59 52 48 44 37 36 38 36 32 28 33 45 53 51 45 38 35 35 34 33 33 31 28 26 25 22 18 16 14 11 7 5
35 42 54 62 64 68 74 79 82 79 72 65 58 53 49 43 37 36 35 32 28 33 48 58 56 50 42 39 39 37 35 37 36 32 29 28 24 20 18 17 13 9 6
31 37 45 52 56 61 68 76 82 80 75 71 65 59 55 50 43 39 37 35 32 37 48 56 54 50 46 42 38 36 36 39 39 33 29 28 24 20 19 19 17 13 9
30 34 40 45 50 54 61 72 80 80 76 75 72 69 66 62 55 48 44 43 43 46 50 53 51 51 51 48 40 35 35 38 38 33 28 25 21 18 17 19 20 18 15
28 33 39 44 49 55 62 71 77 78 77 77 79 79 78 73 65 58 54 53 54 55 54 51 50 50 52 49 42 35 34 36 35 31 26 22 19 17 17 17 18 18 17
26 31 40 47 53 60 67 72 74 74 74 76 79 81 79 74 68 63 62 60 59 58 54 51 48 46 47 47 43 38 35 35 34 31 26 22 19 19 19 19 18 17 16
31 32 39 48 55 61 67 70 71 70 70 72 74 74 72 68 64 63 64 63 59 54 51 48 45 41 39 41 42 40 36 34 33 31 28 23 19 19 20 21 21 20 19
37 38 43 50 55 59 63 65 68 70 71 71 70 68 64 62 63 64 64 61 56 51 48 46 44 40 33 31 33 35 34 32 31 31 28 22 18 15 15 17 19 20 21
40 41 47 53 56 58 58 59 62 66 70 70 67 63 60 60 61 62 61 57 52 50 47 44 44 41 32 22 20 25 29 29 29 30 27 19 14 11 10 10 11 13 16
38 39 45 52 56 56 55 54 55 57 61 62 59 55 55 56 56 56 55 52 50 48 46 44 45 42 31 17 11 15 22 24 24 25 23 17 13 13 13 10 8 8 9
35 35 38 44 50 51 50 49 49 49 50 51 48 45 46 48 48 50 50 49 48 47 45 43 43 39 29 14 5 8 16 19 18 18 18 18 17 17 18 17 14 12 11
32 33 33 38 44 46 45 45 45 45 44 42 40 38 39 39 41 45 47 45 44 43 41 39 39 37 28 14 3 5 14 18 16 13 14 15 16 14 14 18 21 18 15
31 32 34 38 41 42 42 42 40 41 41 41 39 38 37 37 39 41 42 41 40 38 34 32 34 35 28 15 3 4 13 19 18 14 11 9 8 7 6 12 19 20 18
32 33 36 38 39 39 39 38 37 37 39 40 39 37 35 35 36 36 35 35 35 33 29 27 29 29 25 14 4 3 10 16 18 16 11 7 3 2 2 6 12 15 14
33 33 34 34 34 35 36 36 35 36 36 36 35 33 31 29 29 29 28 28 28 27 25 23 22 22 20 14 7 3 4 8 13 13 11 7 2 0 0 2 4 6 6
33 32 31 31 31 32 33 33 32 34 33 31 29 27 25 23 23 23 22 22 22 22 21 18 16 16 18 17 12 5 1 2 6 8 7 4 1 0 1 1 1 2 3
29 29 29 30 31 32 32 31 30 29 28 26 23 20 17 17 18 18 18 17 17 17 16 14 13 13 15 17 14 9 4 4 5 6 5 2 1 2 4 4 3 5 7
23 24 26 29 30 31 31 31 29 26 24 21 17 14 12 12 14 14 13 11 10 9 9 9 10 10 11 12 11 8 6 7 7 6 5 4 4 7 9 8 7 8 9
20 22 25 27 28 29 30 29 27 25 23 19 14 11 10 11 12 11 9 7 5 4 3 5 7 7 8 7 6 4 4 6 7 6 6 6 8 10 11 9 8 8 9

GEFSMW_con_prob3kmehi_228.txt.gz
EHI
21 23 26 29 32 32 26 24 21 15 9 5 2 1 1 2 2 1 1 2 4 6 7 6 4 1 1 2 2 3 3 2 1 0 0 0 0 0 0 0 0 0 0
25 28 32 35 36 35 30 26 23 19 13 7 3 1 0 1 2 2 2 4 6 7 8 8 5 2 1 1 1 2 3 2 0 0 0 0 0 0 0 0 0 0 0
27 31 38 41 40 38 35 31 27 23 19 13 8 6 4 3 3 3 4 6 8 10 10 9 7 3 1 0 0 1 3 2 1 0 0 0 0 0 0 0 0 0 0
25 32 40 44 43 40 37 34 31 27 24 20 17 15 12 9 6 4 5 7 9 11 11 10 8 6 3 2 1 1 2 3 3 1 0 0 0 0 0 0 0 0 0
26 31 39 44 43 41 39 37 35 32 28 25 23 21 18 14 11 7 7 8 9 11 11 11 10 9 7 6 4 3 3 4 4 2 1 0 0 0 0 0 0 0 0
27 30 36 42 42 42 43 43 40 37 32 28 24 21 20 17 15 13 10 9 8 8 9 10 11 10 10 9 9 7 5 5 6 4 3 2 2 1 1 1 0 0 0
24 26 33 40 43 44 48 51 49 43 38 33 26 22 21 19 17 16 14 11 8 6 8 11 12 11 11 11 10 10 8 7 7 6 5 5 5 4 3 2 1 1 0
19 21 27 35 42 46 52 56 55 50 45 40 32 25 21 20 18 18 17 14 10 8 9 11 11 11 10 10 10 10 9 8 8 8 8 9 8 6 5 4 3 2 1
16 18 23 29 38 46 55 59 58 55 51 46 39 29 23 21 20 20 20 18 16 12 9 9 10 10 10 9 9 10 9 8 9 10 10 10 9 8 6 5 4 3 3
18 22 26 31 37 46 55 59 59 56 53 51 45 34 27 24 24 24 24 22 19 16 12 9 9 10 11 10 9 9 8 8 9 10 10 9 9 8 7 6 5 4 4
23 26 30 34 39 45 50 55 57 55 53 51 46 38 32 29 28 27 25 23 20 17 15 13 11 12 12 11 9 8 7 7 8 8 6 6 7 8 7 6 5 5 4
25 25 28 33 38 42 45 48 52 53 51 49 46 42 37 35 32 29 26 23 19 17 16 14 14 15 15 13 11 9 8 8 7 6 4 3 4 5 6 6 5 5 4
22 23 26 30 35 39 42 45 49 51 50 50 47 44 41 39 35 32 29 26 21 19 18 16 15 17 18 17 14 13 12 11 8 5 4 4 3 4 5 5 5 5 6
20 22 25 29 33 37 40 43 47 49 49 48 46 43 42 41 38 35 33 31 26 23 21 20 19 20 19 16 15 14 14 14 11 7 5 6 5 4 4 4 5 6 6
22 23 26 29 33 36 38 40 42 45 45 44 42 39 38 39 37 35 34 33 30 27 26 24 23 21 17 12 10 11 12 13 11 7 5 5 4 3 2 2 3 4 5
25 26 28 31 33 36 37 37 37 39 40 39 37 35 33 33 32 32 32 32 30 28 27 26 23 21 16 8 5 7 9 10 10 6 4 4 2 1 1 1 1 2 3
27 27 28 29 31 34 36 36 35 34 34 34 33 31 29 28 28 28 28 28 28 26 25 23 21 20 15 7 4 5 8 9 9 8 6 4 2 1 1 1 0 0 1
24 25 24 25 28 33 35 34 33 31 30 29 29 28 26 26 26 26 23 22 23 22 20 20 20 19 15 7 3 4 7 9 9 9 8 5 3 2 3 3 1 0 0
22 23 22 23 25 30 32 32 30 28 27 26 26 27 27 26 26 24 20 17 17 17 17 18 18 17 13 7 3 2 5 9 9 9 8 5 3 2 2 3 2 1 0
22 22 22 22 23 24 26 27 27 26 24 23 25 27 27 26 25 23 19 16 16 17 16 14 13 13 12 7 2 2 5 8 9 7 6 3 1 1 1 1 3 2 1
23 22 21 21 19 19 21 24 25 24 23 22 23 24 24 23 22 20 18 17 17 16 13 9 8 8 9 7 2 1 5 7 7 6 4 2 1 0 0 1 3 3 1
21 20 18 18 17 18 20 23 24 25 25 22 21 20 19 18 16 15 15 15 15 12 8 5 3 4 6 5 2 1 2 5 6 5 4 2 1 0 0 0 1 1 1
16 17 16 16 17 18 19 20 20 22 23 21 18 16 15 13 12 11 12 12 11 8 5 2 1 1 3 5 3 2 1 2 3 3 3 2 1 0 0 0 0 0 0
14 15 16 16 17 18 18 17 16 17 19 18 15 13 13 11 10 10 11 10 8 6 4 2 1 1 2 3 4 4 2 2 2 2 2 2 1 0 0 0 0 0 0
12 14 15 15 16 17 16 14 14 15 15 14 12 10 10 9 8 6 6 6 5 5 4 4 3 2 1 1 3 4 4 3 3 3 3 3 2 1 1 1 0 0 0
12 13 14 14 14 15 15 13 13 14 14 13 11 8 7 6 5 3 2 2 2 2 3 4 3 1 0 0 1 2 2 2 2 2 4 4 3 3 3 2 1 0 0

GEFSMW_con_prob3kmehi_234.txt.gz
EHI
6 4 4 6 7 7 6 6 6 4 3 1 0 0 0 0 0 0 0 0 0 0 0 0 0 0 0 0 0 0 0 0 0 0 0 0 0 0 0 0 0 0 0
7 6 6 8 9 8 7 7 6 5 3 2 1 0 0 0 0 0 0 0 0 0 0 0 0 0 0 0 0 0 0 0 0 0 1 1 0 0 0 0 0 0 0
8 8 8 10 10 9 7 6 6 5 4 3 2 1 2 1 1 0 0 0 0 0 1 0 0 0 0 0 0 0 0 0 0 0 1 2 1 0 0 0 0 0 0
8 9 9 10 11 10 8 6 5 5 6 6 6 6 5 3 2 0 0 0 0 0 1 0 0 0 0 0 0 0 0 1 1 1 2 2 1 0 0 0 0 0 0
9 9 10 11 11 11 10 8 8 9 10 11 12 11 8 4 1 0 0 0 0 0 1 0 0 0 0 0 1 1 1 2 2 3 3 2 2 1 0 0 1 0 0
9 9 10 11 12 12 14 15 15 14 13 15 15 13 9 5 3 2 1 1 1 0 1 1 0 0 1 2 3 3 3 3 4 4 5 5 5 4 2 0 1 1 1
9 7 7 10 12 13 16 19 19 16 14 14 14 12 9 7 5 4 4 4 3 1 1 1 1 1 3 4 6 6 5 4 5 5 6 6 6 6 3 2 1 2 2
8 7 7 9 11 13 16 19 19 15 13 13 13 11 10 9 7 5 4 5 6 4 2 2 2 3 4 5 6 5 4 4 5 5 6 7 7 7 6 4 4 3 2
7 7 7 9 11 12 16 19 19 16 13 11 12 12 11 10 8 6 5 5 7 6 5 4 4 4 4 4 4 4 3 3 3 4 5 7 8 8 7 6 6 4 3
6 6 8 10 12 13 16 20 21 18 13 11 11 12 12 12 10 9 8 8 8 8 8 7 6 4 3 3 3 3 2 1 2 4 4 6 7 7 5 5 5 4 2
5 6 9 11 13 16 18 20 21 17 13 12 12 13 15 15 14 13 13 11 11 11 10 9 7 5 4 3 4 4 2 1 3 4 4 4 5 5 4 3 3 2 1
4 7 9 11 13 17 18 20 20 18 17 17 17 18 20 20 19 18 17 16 15 14 13 11 9 6 5 6 6 6 4 3 4 4 3 3 4 5 4 3 3 2 1
6 7 8 9 12 16 18 21 22 22 22 23 23 23 24 25 24 22 22 22 20 17 15 13 11 8 8 9 10 10 7 5 4 4 3 4 5 6 6 4 4 3 2
9 9 8 7 11 17 20 23 25 25 26 28 28 28 28 28 27 26 25 24 22 18 15 13 11 9 8 8 10 11 8 6 6 5 5 5 7 8 7 5 5 5 4
12 11 8 7 11 18 23 25 25 26 27 28 29 29 29 29 27 24 23 23 22 19 17 15 11 9 7 6 7 8 8 7 7 7 7 6 6 6 5 4 5 6 5
13 12 9 8 13 19 24 25 24 22 22 24 25 25 26 26 23 20 18 20 20 20 19 17 13 10 7 5 4 4 5 5 5 6 6 5 3 3 2 2 3 4 4
14 13 11 10 14 19 23 23 21 19 19 19 20 21 23 23 20 17 16 17 18 18 19 18 16 12 8 4 1 1 2 2 2 3 3 2 1 1 2 1 1 1 2
14 13 13 12 14 17 18 19 19 19 18 17 17 18 19 19 18 17 15 15 15 15 16 16 15 12 7 2 0 0 0 0 0 1 1 1 0 1 2 2 1 1 1
12 12 13 14 14 14 14 15 17 18 18 17 17 17 16 17 18 16 14 13 13 13 13 13 13 10 5 1 0 0 0 0 0 0 0 0 0 0 1 2 3 3 3
11 11 11 12 12 11 11 12 14 15 16 17 18 17 16 16 18 17 15 13 12 11 11 10 9 7 3 0 0 0 0 0 0 0 0 0 0 0 1 2 3 4 4
11 10 10 11 10 9 8 9 10 12 14 16 16 16 16 16 17 18 17 14 12 11 10 8 6 4 1 0 0 0 0 0 0 0 1 1 1 0 0 1 2 3 3
10 9 9 11 11 9 8 8 10 11 11 12 13 14 14 16 17 17 16 15 13 12 11 9 6 3 1 0 0 0 0 0 0 0 1 1 1 0 0 0 1 1 1
10 8 8 11 12 11 10 11 11 11 10 9 9 10 12 15 16 16 15 14 13 13 12 9 7 4 1 0 0 0 0 0 0 0 0 0 0 0 0 0 0 0 0
10 9 9 11 12 12 12 13 13 11 9 8 7 7 9 12 13 13 12 12 12 12 10 8 6 4 1 0 0 0 0 0 0 0 0 0 0 0 0 0 0 0 1
8 9 10 11 12 13 13 13 13 12 11 8 7 7 7 9 9 8 7 8 8 8 6 5 5 4 1 0 0 1 0 0 0 0 0 0 0 0 1 1 1 1 2
5 8 10 10 11 12 13 12 12 14 13 9 7 6 7 7 5 4 4 4 3 3 3 3 4 3 2 1 0 1 0 0 0 0 0 0 0 1 2 2 2 2 3

GEFSMW_con_prob3kmehi_240.txt.gz
EHI
8 9 10 9 8 9 15 21 24 23 20 15 9 4 2 2 3 3 1 0 0 0 0 1 2 1 0 0 0 0 0 0 0 0 1 0 0 0 0 1 1 0 0
11 13 13 12 11 11 14 18 22 23 21 17 12 7 3 2 2 2 2 1 1 0 0 1 2 1 0 0 0 0 0 0 0 1 1 1 0 0 1 2 2 1 1
15 17 18 16 14 12 11 14 18 21 21 19 14 9 6 4 3 3 3 3 2 1 0 1 1 0 0 0 0 0 0 0 0 2 2 1 0 1 2 3 2 1 2
18 20 21 19 15 12 11 13 16 18 18 17 15 12 9 7 5 4 4 4 3 3 2 1 2 1 1 0 0 1 2 2 2 2 3 2 2 2 3 3 2 1 2
18 19 19 18 15 12 13 15 17 17 17 17 17 16 13 9 7 6 5 4 4 4 4 4 5 5 3 1 1 2 4 4 4 3 4 4 4 5 5 4 3 2 2
15 16 16 15 14 14 16 18 21 21 20 19 19 19 16 11 9 8 6 4 4 5 6 6 8 8 6 4 3 3 4 4 5 5 5 5 6 7 6 5 4 4 3
13 15 16 15 15 17 21 24 26 26 24 22 21 21 18 13 11 10 8 6 5 5 7 8 10 12 11 8 6 6 6 6 7 7 7 6 7 7 7 6 6 5 4
11 14 16 16 16 19 25 29 31 32 31 28 26 23 17 11 9 10 9 7 5 5 7 10 12 15 14 12 11 11 11 12 12 11 10 8 7 6 6 7 7 5 3
11 13 16 16 16 17 21 28 33 37 38 35 29 23 17 12 9 10 11 9 7 6 8 11 14 17 18 17 17 16 16 16 15 14 13 11 9 7 7 8 9 8 6
12 14 16 17 15 14 16 22 29 35 36 33 26 21 19 16 13 13 15 14 11 11 13 15 18 21 24 24 22 21 19 18 17 15 14 13 12 12 11 10 10 11 11
14 15 17 18 17 16 16 21 27 30 28 25 22 21 20 19 18 17 18 18 17 18 19 21 23 24 26 26 25 22 19 17 16 15 15 13 13 15 15 12 11 13 13
15 16 18 19 20 21 23 27 29 27 23 21 21 22 23 24 23 22 22 22 22 23 24 25 26 26 26 27 27 23 18 15 15 16 17 15 13 15 16 15 13 13 13
17 19 21 22 24 28 31 34 33 28 25 25 25 26 28 30 29 27 27 28 27 27 26 25 25 25 26 28 29 24 19 16 16 17 19 18 15 16 17 17 17 17 16
22 25 27 27 29 34 38 39 38 35 34 34 33 32 33 34 33 32 33 34 32 30 29 26 24 23 24 25 27 25 22 20 18 18 20 20 18 17 16 17 20 22 22
28 29 28 28 32 37 41 43 43 43 43 42 40 38 37 35 34 34 36 38 36 34 33 30 26 24 23 22 22 23 23 23 22 23 25 23 18 14 12 13 17 19 20
30 28 26 26 30 35 40 43 45 46 47 46 43 42 39 36 33 33 34 38 38 37 36 33 29 27 23 18 14 17 22 25 26 27 28 24 15 9 8 8 8 9 10
25 24 23 23 25 30 35 40 42 44 45 46 44 43 42 37 32 30 32 34 37 37 35 32 31 28 21 12 7 10 18 23 25 25 26 20 11 7 7 6 5 5 5
22 21 20 21 22 24 29 34 39 41 41 41 41 42 40 34 30 30 31 34 36 35 32 29 29 28 20 9 3 5 14 21 22 21 21 18 12 7 8 8 7 8 9
21 20 21 22 24 24 26 31 35 37 36 36 36 35 33 29 26 27 30 31 32 31 27 25 27 27 20 8 2 4 12 20 19 15 15 16 12 6 4 6 9 11 11
19 20 22 25 28 28 27 29 32 33 31 30 28 26 25 25 24 24 26 27 26 25 24 23 24 23 18 7 1 3 11 17 15 12 12 11 7 3 1 4 7 9 9
19 20 22 26 29 30 28 27 28 27 25 24 21 19 20 22 23 23 23 23 22 22 22 20 18 18 14 7 1 2 7 11 11 10 9 8 4 0 0 1 3 4 4
19 19 20 22 24 24 24 23 22 21 21 21 20 18 17 19 21 22 22 22 21 20 18 16 14 14 13 7 2 1 3 6 8 7 6 5 2 0 0 0 1 1 0
15 15 15 17 18 18 18 17 17 17 19 21 20 18 17 16 19 22 22 21 19 17 15 14 13 13 12 8 3 0 0 2 4 4 2 1 1 0 0 0 0 0 0
9 10 12 15 17 16 14 13 13 16 18 20 20 18 15 14 15 18 19 18 17 16 14 13 13 13 11 8 4 1 1 1 2 3 2 1 1 1 1 0 1 1 0
8 10 12 15 17 16 13 11 12 15 19 20 19 17 13 11 12 12 11 11 12 12 12 12 12 11 9 5 4 3 2 2 2 3 3 3 2 2 2 2 2 3 2
8 10 12 14 16 15 12 11 12 15 19 21 20 16 12 11 10 8 6 6 7 7 8 10 11 10 7 3 2 2 2 2 3 3 3 3 3 3 3 3 3 4 5

GEFSMW_con_prob3kmehi_246.txt.gz
EHI
34 36 33 32 40 48 49 42 33 32 31 23 16 16 16 14 11 11 16 18 14 9 6 5 5 5 4 2 1 1 1 2 5 6 4 4 6 9 11 11 9 9 12
37 39 36 35 42 51 52 45 37 33 31 25 19 17 18 18 17 19 23 23 18 12 8 7 6 6 6 5 4 4 2 2 3 3 3 2 3 6 7 9 9 10 12
42 43 42 40 45 54 56 52 47 40 34 28 22 18 19 21 24 28 29 27 22 16 12 11 9 8 9 10 10 8 6 4 3 2 2 2 2 3 5 5 8 11 13
46 47 46 45 48 54 58 60 61 53 42 34 27 21 20 21 25 28 29 27 23 19 16 16 14 13 12 12 12 11 9 8 5 4 5 6 7 8 7 5 7 11 12
48 51 52 51 50 53 57 62 66 63 53 42 33 28 23 20 22 26 27 28 25 21 20 21 21 19 15 14 15 15 14 12 10 7 7 9 11 12 11 9 7 8 8
47 52 56 56 54 53 54 58 63 63 57 46 39 36 31 25 26 29 31 29 27 25 24 25 28 26 21 20 22 21 20 18 16 13 11 11 12 14 14 11 8 5 4
41 47 54 58 57 54 52 54 59 61 56 49 43 42 38 33 32 33 32 29 26 28 31 33 35 32 27 25 26 26 25 22 20 18 18 17 15 15 15 14 11 7 4
36 41 50 56 57 55 52 53 58 60 56 51 48 45 42 37 36 36 31 25 23 27 35 41 41 36 28 26 28 28 27 25 22 20 23 25 20 18 17 17 17 13 10
34 39 46 51 53 54 54 55 59 60 57 54 51 48 44 41 41 40 33 25 23 27 38 45 42 36 30 28 31 31 30 30 26 22 24 26 24 20 19 20 22 20 16
31 38 44 45 46 49 51 54 59 62 59 55 54 51 48 45 43 41 36 31 28 32 41 46 43 37 33 33 35 36 36 36 32 27 26 27 23 20 20 21 23 23 20
28 35 41 42 43 45 48 53 59 63 61 58 56 55 52 49 45 40 38 36 36 40 45 47 45 40 37 38 38 38 39 39 37 32 29 27 24 20 20 19 19 22 22
30 34 37 41 45 46 49 54 59 62 62 60 58 56 55 54 50 45 43 43 44 45 46 48 48 44 42 42 42 39 37 39 40 37 32 29 27 24 21 18 17 20 23
35 36 38 43 49 52 54 56 58 59 60 60 58 55 55 57 56 52 50 50 49 48 48 48 49 47 45 45 44 41 37 37 39 38 34 31 30 28 24 19 18 19 21
40 42 46 49 53 57 58 56 56 56 57 59 57 55 55 57 58 56 54 53 52 51 51 50 50 49 47 46 45 42 39 38 38 37 35 32 30 29 26 22 20 18 19
42 47 50 52 55 57 57 56 55 54 57 60 60 58 57 58 58 56 54 54 53 53 53 51 49 48 45 40 39 39 39 39 38 38 36 32 29 27 23 19 16 15 15
43 45 47 50 53 54 53 52 52 53 55 59 61 60 59 58 56 54 53 53 52 52 52 49 45 42 37 29 27 30 36 40 39 38 34 28 25 23 17 10 6 8 10
41 41 43 44 47 48 47 45 45 48 50 54 57 60 59 57 54 53 52 51 50 49 47 44 40 37 30 20 16 20 31 38 38 34 28 22 18 18 15 9 5 5 6
37 38 39 39 41 42 41 39 37 39 42 46 50 54 55 53 52 51 50 48 47 45 42 39 37 34 27 17 10 13 24 33 32 28 23 17 15 15 15 14 13 11 8
33 34 33 34 36 37 38 36 32 30 32 39 44 46 48 48 48 47 45 43 42 40 39 37 34 31 24 15 8 9 18 25 25 23 19 15 13 12 11 14 17 15 12
29 28 28 30 32 35 37 34 30 28 30 36 40 41 42 43 42 39 38 37 36 35 35 33 30 26 21 13 6 7 14 19 19 17 14 11 9 7 5 9 13 13 12
26 26 26 28 31 35 34 31 29 31 34 37 38 38 38 37 34 32 31 31 31 31 31 29 24 21 18 12 4 4 10 14 14 12 10 8 5 2 1 3 6 7 7
24 24 25 28 31 32 31 30 31 34 36 36 35 36 35 32 30 30 29 28 28 29 28 25 21 17 16 11 3 1 4 8 9 9 7 4 1 0 0 0 1 2 2
20 21 24 27 29 30 30 31 31 32 33 33 33 34 33 30 30 30 30 28 28 27 26 23 19 16 15 11 5 1 1 3 5 6 4 1 0 0 0 0 0 0 0
19 22 24 27 29 31 32 32 31 29 29 29 31 31 29 29 31 31 28 26 25 25 26 23 19 16 14 12 7 3 1 1 2 2 2 0 0 0 0 0 0 0 0
22 24 26 27 29 31 31 31 30 29 26 25 26 25 23 26 28 26 22 18 17 18 20 20 16 14 12 10 8 5 3 1 1 2 2 2 1 1 1 1 1 1 1
22 25 27 27 27 29 30 31 32 30 26 23 21 18 19 23 24 21 16 11 10 11 12 13 11 10 8 6 5 4 3 2 1 2 3 3 3 2 2 2 1 1 2

GEFSMW_con_prob3kmehi_252.txt.gz
EHI
15 18 21 21 18 15 13 11 8 7 7 7 7 6 4 2 3 3 3 3 3 3 2 1 1 0 0 0 0 0 0 0 0 0 0 0 0 0 0 0 0 0 1
15 18 22 24 22 19 16 14 12 9 8 7 7 4 2 2 2 3 3 3 4 4 3 2 1 0 0 0 0 0 0 0 0 0 0 0 0 0 0 0 0 0 1
16 18 24 30 30 26 24 22 19 15 11 9 6 4 3 2 2 2 4 5 6 6 4 2 1 0 0 0 0 0 0 0 0 0 0 0 0 0 0 0 0 0 1
18 21 27 33 36 34 30 27 24 21 16 11 8 7 7 6 3 2 4 6 8 7 4 1 0 0 0 0 0 0 0 1 1 0 0 0 0 0 0 0 0 0 0
19 23 28 32 35 36 33 30 27 24 19 15 12 10 9 8 6 4 4 4 6 6 4 1 1 1 1 1 1 1 0 1 1 0 0 0 0 0 0 0 0 0 0
18 21 26 28 31 35 35 33 30 26 22 19 16 13 10 10 9 8 6 5 5 6 5 4 3 2 2 2 1 1 0 1 1 0 0 0 0 0 0 0 0 0 0
18 22 26 28 32 38 39 36 32 30 28 24 20 17 15 12 11 11 10 9 8 8 9 8 6 5 4 3 2 1 1 1 1 0 0 1 1 1 1 1 1 0 0
20 24 29 30 35 40 42 39 36 35 34 31 26 22 20 16 12 10 11 11 11 11 11 11 11 11 9 6 4 4 3 3 2 2 3 4 4 4 4 3 2 1 0
22 26 31 32 33 37 41 42 41 39 37 36 32 26 23 19 13 9 10 10 10 11 12 13 14 15 15 12 9 7 5 5 4 4 6 6 6 6 7 7 4 2 1
20 24 30 31 31 33 37 40 41 39 37 36 34 30 24 19 14 11 10 10 9 8 10 13 15 17 18 18 14 11 9 8 6 6 7 7 6 7 7 8 7 4 3
18 20 26 29 29 30 33 36 37 37 37 36 34 32 28 22 17 14 13 13 11 8 8 12 15 17 18 19 17 14 11 9 7 6 6 6 6 7 7 7 6 4 3
17 18 22 27 28 27 28 32 35 38 40 38 35 35 34 29 23 19 18 18 15 12 11 13 15 16 18 20 20 18 15 12 10 9 8 7 6 6 7 7 5 3 1
22 21 22 25 27 27 25 27 32 37 40 40 38 37 36 32 27 24 22 20 18 15 15 17 17 17 21 24 25 25 22 17 14 13 11 8 6 6 6 6 4 2 0
28 26 24 24 26 27 25 25 28 32 36 38 38 37 34 30 26 25 23 20 18 16 17 20 20 21 23 24 25 26 24 18 14 13 12 10 7 6 6 6 4 2 1
28 27 24 22 23 25 25 26 28 29 31 34 35 33 31 28 25 22 20 18 16 15 18 20 21 22 23 22 22 22 20 16 12 11 12 10 7 6 6 5 4 2 2
24 24 22 20 21 22 23 25 27 27 27 29 31 29 28 26 23 18 16 14 13 14 18 21 22 23 22 20 18 17 17 17 14 11 10 9 7 6 6 4 3 2 2
24 23 21 19 19 19 20 21 24 25 24 26 28 27 25 23 20 17 15 14 15 18 21 23 25 24 21 17 14 12 14 15 13 10 9 8 6 5 5 4 3 1 1
24 24 22 19 17 17 18 19 21 21 21 23 25 24 23 21 19 18 17 17 19 22 23 23 22 20 16 13 9 7 9 10 9 7 7 6 5 4 4 3 3 2 1
22 22 20 17 16 16 17 19 19 18 18 20 21 20 18 18 18 18 18 18 19 20 20 18 16 13 12 9 6 4 5 6 5 5 5 4 3 2 3 3 3 1 0
19 20 19 16 15 16 17 17 17 16 16 18 19 18 15 14 15 16 17 17 16 15 15 14 11 9 9 7 4 3 5 7 5 4 3 2 1 1 1 2 2 1 0
17 20 20 18 16 16 17 17 15 14 14 16 18 18 16 14 13 14 15 15 14 12 11 11 10 9 7 6 3 2 5 7 7 5 3 1 0 0 0 1 1 1 0
15 18 20 18 17 16 17 16 15 12 12 14 16 16 15 13 14 15 15 14 13 11 10 10 10 9 7 4 2 1 2 4 5 5 4 2 1 0 0 0 0 0 0
11 13 16 17 16 16 16 15 14 13 12 13 14 13 11 11 14 16 15 13 13 11 10 9 10 9 7 3 1 0 0 1 1 2 2 1 0 0 0 0 0 0 0
7 7 10 14 15 15 14 13 13 12 11 12 12 11 10 10 12 14 13 12 12 11 10 8 8 7 6 3 1 0 0 0 0 0 0 0 0 0 0 0 0 0 0
5 5 7 11 13 12 11 11 9 9 8 9 9 9 9 9 9 9 9 9 9 8 7 6 5 5 5 3 2 0 0 0 0 0 0 0 0 0 0 0 0 0 0
4 4 6 9 10 9 8 8 6 6 6 7 7 8 8 7 7 7 7 7 6 4 3 4 4 4 4 3 1 0 0 0 0 0 0 0 0 0 0 0 0 0 0

GEFSMW_con_prob3kmehi_258.txt.gz
EHI
1 3 6 8 8 8 7 7 6 4 3 3 3 2 1 0 0 0 0 0 0 1 0 0 0 0 0 0 0 0 0 0 0 0 0 0 0 0 0 0 0 0 0
1 3 6 8 8 8 8 7 6 5 4 4 3 1 0 0 0 0 0 0 1 2 1 1 0 0 0 0 0 0 0 0 0 0 0 0 0 0 0 0 0 0 0
2 4 7 8 9 9 9 8 7 6 6 5 4 2 1 1 0 0 0 1 2 3 3 2 1 0 0 0 0 0 0 0 0 0 0 0 0 0 0 0 0 0 0
5 6 7 8 8 8 8 8 6 6 6 5 4 3 2 1 0 0 1 1 3 3 3 3 1 0 0 0 0 0 0 0 0 1 1 0 0 0 0 0 0 0 0
7 7 7 8 9 9 8 7 5 4 4 4 4 3 3 1 0 0 1 2 3 3 3 3 2 0 0 0 0 0 0 0 0 1 1 0 0 0 0 0 0 0 0
5 5 6 8 9 8 8 8 6 4 3 3 3 3 3 2 2 2 1 2 3 3 3 3 2 0 0 0 0 0 0 0 0 1 1 0 0 0 0 0 0 0 0
3 3 5 7 7 6 8 10 8 5 3 3 3 4 4 4 5 4 2 1 2 2 3 3 2 1 0 0 0 0 0 0 0 0 0 0 0 0 0 0 0 0 0
2 2 3 5 6 6 9 13 11 6 4 4 4 4 6 6 6 5 3 1 1 1 1 2 2 1 0 0 0 0 1 1 0 0 0 0 0 1 2 2 1 1 0
3 1 2 5 7 7 10 14 13 8 6 6 6 6 7 7 7 7 5 3 1 0 0 1 1 0 0 0 0 1 2 3 2 1 0 0 1 2 4 4 3 3 2
4 3 3 6 8 8 9 12 12 9 7 7 7 8 8 8 8 9 9 6 2 0 1 2 2 1 1 0 0 1 3 4 3 2 1 1 1 3 4 5 4 4 4
6 6 6 7 9 9 8 9 11 10 8 8 9 10 10 9 9 10 9 7 3 1 1 2 3 3 2 1 1 1 3 3 2 2 2 2 2 3 3 4 4 4 4
7 7 7 8 9 9 9 10 11 11 11 13 13 14 14 12 11 10 8 6 4 3 2 2 3 3 4 4 5 4 4 4 2 2 3 3 3 3 3 3 3 3 3
5 6 6 8 9 10 11 12 11 12 14 17 17 17 17 16 14 13 11 7 5 4 3 2 3 4 5 8 10 10 8 7 5 4 4 5 5 4 3 4 4 3 3
4 5 6 7 9 12 13 13 11 11 13 15 17 18 18 19 18 17 14 11 9 6 4 3 3 4 6 9 12 13 12 10 9 7 5 5 6 5 5 5 5 4 4
5 7 8 9 10 13 13 12 10 9 10 12 14 16 18 20 19 17 13 11 10 7 4 3 3 4 6 7 10 11 11 11 9 6 4 4 5 6 6 6 5 4 4
8 9 11 12 12 11 11 9 9 10 10 12 14 17 20 20 17 12 9 8 7 6 5 4 4 5 6 6 6 8 10 9 7 3 2 2 3 5 5 4 3 2 2
9 10 11 11 10 9 8 7 8 10 12 14 16 19 22 21 15 8 4 4 5 5 5 6 7 7 7 5 4 5 7 8 6 4 2 2 2 2 3 2 1 0 1
9 9 8 7 6 5 6 8 10 11 13 15 17 19 20 19 14 8 4 4 5 7 7 8 9 8 6 4 3 3 4 6 6 6 5 3 2 1 1 0 0 1 2
9 9 8 6 4 3 4 8 11 12 13 15 16 16 14 13 10 8 7 7 8 9 10 9 9 7 5 3 1 1 2 4 6 7 6 3 2 1 0 0 1 2 3
9 9 10 8 6 4 4 6 9 11 12 13 14 12 9 7 7 8 9 10 10 10 9 8 8 7 6 3 1 1 3 5 6 6 5 3 1 0 0 0 1 2 2
8 9 10 9 7 7 6 6 7 8 8 9 11 10 6 4 6 8 11 12 12 11 9 8 8 8 7 5 3 1 3 5 5 5 5 3 1 0 0 0 0 1 1
7 8 8 8 8 8 8 6 6 6 5 6 7 7 5 4 4 7 9 11 12 12 10 9 8 7 7 5 3 1 1 3 4 4 4 3 1 0 0 0 0 0 0
6 6 6 7 7 7 7 6 5 5 4 3 4 4 4 3 3 4 6 8 11 11 10 9 8 6 5 4 3 1 0 1 2 2 2 2 1 0 0 0 0 0 0
3 4 5 6 5 5 5 5 4 4 3 2 2 3 3 3 3 3 4 5 7 8 8 7 5 4 4 3 2 2 1 1 1 1 1 1 0 0 0 0 0 0 0
1 1 2 4 4 4 4 3 2 2 3 2 1 1 2 2 2 2 2 2 3 4 5 4 3 2 2 1 1 2 2 2 1 0 0 0 0 0 0 0 0 0 0
0 0 1 2 4 4 3 1 1 1 2 1 0 0 1 1 1 1 1 1 1 1 2 2 1 1 1 0 0 1 1 1 1 0 0 0 0 0 0 0 0 0 0